Time,TemperatureF,DewpointF,PressureIn,WindDirection,WindDirectionDegrees,WindSpeedMPH,WindSpeedGustMPH,Humidity,HourlyPrecipIn,Conditions,Clouds,dailyrainin,SoftwareType,DateUTC
2013-12-04 00:00:00,36.9,12.4,29.60,ESE,112,1.3,0.0,36,0.00,RA,,0.00,WeatherDisplay:10.37,2013-12-04 05:00:00,
2013-12-04 00:01:00,36.9,12.4,29.60,ESE,112,1.3,0.0,36,0.00,RA,,0.00,WeatherDisplay:10.37,2013-12-04 05:01:00,
2013-12-04 00:02:00,36.9,11.7,29.59,ESE,112,1.3,0.0,35,0.00,RA,,0.00,WeatherDisplay:10.37,2013-12-04 05:02:00,
2013-12-04 00:03:00,36.9,11.7,29.60,East,90,1.3,0.0,35,0.00,RA,,0.00,WeatherDisplay:10.37,2013-12-04 05:03:00,
2013-12-04 00:05:00,36.9,11.7,29.59,East,90,1.3,0.0,35,0.00,RA,,0.00,WeatherDisplay:10.37,2013-12-04 05:05:00,
2013-12-04 00:07:00,36.9,11.7,29.64,ENE,67,1.3,0.0,35,0.00,RA,,0.00,WeatherDisplay:10.37,2013-12-04 05:07:00,
2013-12-04 00:08:00,36.9,11.7,29.64,ENE,67,1.3,0.0,35,0.00,RA,,0.00,WeatherDisplay:10.37,2013-12-04 05:08:00,
2013-12-04 00:09:00,36.9,12.4,29.61,NE,45,1.3,0.0,36,0.00,RA,,0.00,WeatherDisplay:10.37,2013-12-04 05:09:00,
2013-12-04 00:11:00,36.9,12.4,29.60,NE,45,1.3,0.0,36,0.00,CLR,,0.00,WeatherDisplay:10.37,2013-12-04 05:11:00,
2013-12-04 00:12:00,36.9,12.4,29.65,NE,45,1.3,0.0,36,0.00,CLR,,0.00,WeatherDisplay:10.37,2013-12-04 05:12:00,
2013-12-04 00:13:00,36.9,13.0,29.61,NNW,337,1.3,0.0,37,0.00,CLR,,0.00,WeatherDisplay:10.37,2013-12-04 05:13:00,
2013-12-04 00:14:00,36.9,13.0,29.61,NNW,337,1.3,0.0,37,0.00,CLR,,0.00,WeatherDisplay:10.37,2013-12-04 05:14:00,
2013-12-04 00:17:00,36.9,13.0,29.66,NNW,337,1.3,0.0,37,0.00,CLR,,0.00,WeatherDisplay:10.37,2013-12-04 05:17:00,
2013-12-04 00:19:00,36.9,13.0,29.66,NNW,337,1.3,0.0,37,0.00,CLR,,0.00,WeatherDisplay:10.37,2013-12-04 05:19:00,
2013-12-04 00:20:00,36.9,13.0,29.61,NNW,337,1.3,0.0,37,0.00,CLR,,0.00,WeatherDisplay:10.37,2013-12-04 05:20:00,
2013-12-04 00:21:00,36.9,13.0,29.61,NNW,337,1.3,0.0,37,0.00,CLR,,0.00,WeatherDisplay:10.37,2013-12-04 05:21:00,
2013-12-04 00:22:00,36.9,12.4,29.61,NW,315,1.2,0.0,36,0.00,CLR,,0.00,WeatherDisplay:10.37,2013-12-04 05:22:00,
2013-12-04 00:23:00,36.9,12.4,29.61,NW,315,0.0,0.0,36,0.00,CLR,,0.00,WeatherDisplay:10.37,2013-12-04 05:23:00,
2013-12-04 00:25:00,36.9,12.4,29.62,NW,315,0.0,0.0,36,0.00,CLR,,0.00,WeatherDisplay:10.37,2013-12-04 05:25:00,
2013-12-04 00:27:00,36.9,12.4,29.66,NW,315,0.0,0.0,36,0.00,CLR,,0.00,WeatherDisplay:10.37,2013-12-04 05:27:00,
2013-12-04 00:28:00,36.9,12.4,29.63,NW,315,0.0,0.0,36,0.00,CLR,,0.00,WeatherDisplay:10.37,2013-12-04 05:28:00,
2013-12-04 00:29:00,36.9,12.4,29.63,NNW,337,0.0,0.0,36,0.00,CLR,,0.00,WeatherDisplay:10.37,2013-12-04 05:29:00,
2013-12-04 00:31:00,36.9,12.4,29.63,NNW,337,0.0,0.0,36,0.00,CLR,,0.00,WeatherDisplay:10.37,2013-12-04 05:31:00,
2013-12-04 00:32:00,36.9,12.4,29.63,NNW,337,0.0,0.0,36,0.00,CLR,,0.00,WeatherDisplay:10.37,2013-12-04 05:32:00,
2013-12-04 00:34:00,36.7,12.8,29.57,NNW,337,0.0,0.0,37,0.00,CLR,,0.00,WeatherDisplay:10.37,2013-12-04 05:34:00,
2013-12-04 00:35:00,36.7,12.8,29.68,NNW,337,0.0,0.0,37,0.00,CLR,,0.00,WeatherDisplay:10.37,2013-12-04 05:35:00,
2013-12-04 00:36:00,36.7,12.8,29.68,NNW,337,0.0,0.0,37,0.00,CLR,,0.00,WeatherDisplay:10.37,2013-12-04 05:36:00,
2013-12-04 00:37:00,36.7,12.8,29.68,NNW,337,0.0,0.0,37,0.00,CLR,,0.00,WeatherDisplay:10.37,2013-12-04 05:37:00,
2013-12-04 00:40:00,36.7,13.4,29.60,NE,45,0.0,0.0,38,0.00,CLR,,0.00,WeatherDisplay:10.37,2013-12-04 05:40:00,
2013-12-04 00:42:00,36.7,13.4,29.60,NE,45,0.0,0.0,38,0.00,CLR,,0.00,WeatherDisplay:10.37,2013-12-04 05:42:00,
2013-12-04 00:43:00,36.7,12.8,29.64,North,0,0.0,0.0,37,0.00,CLR,,0.00,WeatherDisplay:10.37,2013-12-04 05:43:00,
2013-12-04 00:45:00,36.7,12.8,29.68,North,0,0.0,0.0,37,0.00,CLR,,0.00,WeatherDisplay:10.37,2013-12-04 05:45:00,
2013-12-04 00:47:00,36.7,12.8,29.57,North,0,0.0,0.0,37,0.00,CLR,,0.00,WeatherDisplay:10.37,2013-12-04 05:47:00,
2013-12-04 00:48:00,36.7,12.8,29.68,ENE,67,0.0,0.0,37,0.00,CLR,,0.00,WeatherDisplay:10.37,2013-12-04 05:48:00,
2013-12-04 00:49:00,36.7,12.8,29.68,ENE,67,0.0,0.0,37,0.00,CLR,,0.00,WeatherDisplay:10.37,2013-12-04 05:49:00,
2013-12-04 00:51:00,36.7,13.4,29.64,East,90,0.0,0.0,38,0.00,CLR,,0.00,WeatherDisplay:10.37,2013-12-04 05:51:00,
2013-12-04 00:52:00,36.7,13.4,29.57,NE,45,0.0,0.0,38,0.00,CLR,,0.00,WeatherDisplay:10.37,2013-12-04 05:52:00,
2013-12-04 00:53:00,36.7,13.4,29.58,NE,45,0.0,0.0,38,0.00,CLR,,0.00,WeatherDisplay:10.37,2013-12-04 05:53:00,
2013-12-04 00:55:00,36.7,13.4,29.62,ENE,67,0.0,0.0,38,0.00,CLR,,0.00,WeatherDisplay:10.37,2013-12-04 05:55:00,
2013-12-04 00:56:00,36.7,14.0,29.62,ENE,67,0.0,0.0,39,0.00,CLR,,0.00,WeatherDisplay:10.37,2013-12-04 05:56:00,
2013-12-04 00:58:00,36.7,14.0,29.65,ENE,67,0.0,0.0,39,0.00,CLR,,0.00,WeatherDisplay:10.37,2013-12-04 05:58:00,
2013-12-04 00:59:00,36.7,14.0,29.58,ENE,67,0.0,0.0,39,0.00,CLR,,0.00,WeatherDisplay:10.37,2013-12-04 05:59:00,
2013-12-04 01:00:00,36.7,14.6,29.58,ENE,67,0.0,0.0,40,0.00,CLR,,0.00,WeatherDisplay:10.37,2013-12-04 06:00:00,
2013-12-04 01:01:00,36.7,14.6,29.68,ENE,67,0.0,0.0,40,0.00,CLR,,0.00,WeatherDisplay:10.37,2013-12-04 06:01:00,
2013-12-04 01:03:00,36.5,14.4,29.58,ENE,67,0.0,0.0,40,0.00,CLR,,0.00,WeatherDisplay:10.37,2013-12-04 06:03:00,
2013-12-04 01:04:00,36.5,13.9,29.68,ENE,67,0.0,0.0,39,0.00,CLR,,0.00,WeatherDisplay:10.37,2013-12-04 06:04:00,
2013-12-04 01:05:00,36.5,13.9,29.68,ENE,67,0.0,0.0,39,0.00,CLR,,0.00,WeatherDisplay:10.37,2013-12-04 06:05:00,
2013-12-04 01:07:00,36.5,13.9,29.68,ENE,67,0.0,0.0,39,0.00,CLR,,0.00,WeatherDisplay:10.37,2013-12-04 06:07:00,
2013-12-04 01:08:00,36.5,13.9,29.58,ENE,67,0.0,0.0,39,0.00,CLR,,0.00,WeatherDisplay:10.37,2013-12-04 06:08:00,
2013-12-04 01:09:00,36.5,13.9,29.58,East,90,0.0,0.0,39,0.00,CLR,,0.00,WeatherDisplay:10.37,2013-12-04 06:09:00,
2013-12-04 01:10:00,36.5,13.9,29.58,East,90,0.0,0.0,39,0.00,CLR,,0.00,WeatherDisplay:10.37,2013-12-04 06:10:00,
2013-12-04 01:12:00,36.5,13.9,29.69,East,90,0.0,0.0,39,0.00,CLR,,0.00,WeatherDisplay:10.37,2013-12-04 06:12:00,
2013-12-04 01:14:00,36.5,13.9,29.58,ENE,67,0.0,0.3,39,0.00,CLR,,0.00,WeatherDisplay:10.37,2013-12-04 06:14:00,
2013-12-04 01:16:00,36.5,14.4,29.59,NE,45,0.3,0.0,40,0.00,CLR,,0.00,WeatherDisplay:10.37,2013-12-04 06:16:00,
2013-12-04 01:17:00,36.5,14.4,29.63,East,90,0.3,0.0,40,0.00,CLR,,0.00,WeatherDisplay:10.37,2013-12-04 06:17:00,
2013-12-04 01:18:00,36.3,14.3,29.63,East,90,0.3,0.0,40,0.00,CLR,,0.00,WeatherDisplay:10.37,2013-12-04 06:18:00,
2013-12-04 01:19:00,36.3,14.3,29.63,ESE,112,0.3,0.0,40,0.00,CLR,,0.00,WeatherDisplay:10.37,2013-12-04 06:19:00,
2013-12-04 01:21:00,36.5,15.0,29.61,ESE,112,0.3,0.0,41,0.00,CLR,,0.00,WeatherDisplay:10.37,2013-12-04 06:21:00,
2013-12-04 01:22:00,36.5,15.0,29.61,ESE,112,0.3,0.0,41,0.00,CLR,,0.00,WeatherDisplay:10.37,2013-12-04 06:22:00,
2013-12-04 01:23:00,36.5,15.0,29.59,East,90,0.0,0.0,41,0.00,CLR,,0.00,WeatherDisplay:10.37,2013-12-04 06:23:00,
2013-12-04 01:24:00,36.5,15.0,29.59,East,90,0.0,0.0,41,0.00,CLR,,0.00,WeatherDisplay:10.37,2013-12-04 06:24:00,
2013-12-04 01:25:00,36.5,15.0,29.58,ENE,67,0.0,0.0,41,0.00,CLR,,0.00,WeatherDisplay:10.37,2013-12-04 06:25:00,
2013-12-04 01:26:00,36.5,14.4,29.60,ENE,67,0.0,0.0,40,0.00,CLR,,0.00,WeatherDisplay:10.37,2013-12-04 06:26:00,
2013-12-04 01:27:00,36.5,14.4,29.60,ESE,112,0.0,0.0,40,0.00,CLR,,0.00,WeatherDisplay:10.37,2013-12-04 06:27:00,
2013-12-04 01:28:00,36.5,14.4,29.60,ESE,112,0.0,0.0,40,0.00,CLR,,0.00,WeatherDisplay:10.37,2013-12-04 06:28:00,
2013-12-04 01:30:00,36.5,13.9,29.60,East,90,0.0,0.0,39,0.00,CLR,,0.00,WeatherDisplay:10.37,2013-12-04 06:30:00,
2013-12-04 01:31:00,36.5,13.9,29.60,East,90,0.0,0.0,39,0.00,CLR,,0.00,WeatherDisplay:10.37,2013-12-04 06:31:00,
2013-12-04 01:33:00,36.5,13.9,29.59,East,90,0.0,0.0,39,0.00,CLR,,0.00,WeatherDisplay:10.37,2013-12-04 06:33:00,
2013-12-04 01:34:00,36.5,13.9,29.62,ENE,67,0.0,0.0,39,0.00,CLR,,0.00,WeatherDisplay:10.37,2013-12-04 06:34:00,
2013-12-04 01:36:00,36.5,14.4,29.57,ENE,67,0.0,0.0,40,0.00,CLR,,0.00,WeatherDisplay:10.37,2013-12-04 06:36:00,
2013-12-04 01:37:00,36.5,14.4,29.58,ENE,67,0.0,0.0,40,0.00,CLR,,0.00,WeatherDisplay:10.37,2013-12-04 06:37:00,
2013-12-04 01:38:00,36.5,14.4,29.58,ENE,67,0.0,0.0,40,0.00,CLR,,0.00,WeatherDisplay:10.37,2013-12-04 06:38:00,
2013-12-04 01:40:00,36.5,15.0,29.61,NNE,22,0.0,0.0,41,0.00,CLR,,0.00,WeatherDisplay:10.37,2013-12-04 06:40:00,
2013-12-04 01:42:00,36.5,15.0,29.61,East,90,0.0,0.0,41,0.00,CLR,,0.00,WeatherDisplay:10.37,2013-12-04 06:42:00,
2013-12-04 01:43:00,36.5,15.0,29.59,NNW,337,0.0,0.0,41,0.00,CLR,,0.00,WeatherDisplay:10.37,2013-12-04 06:43:00,
2013-12-04 01:44:00,36.5,15.0,29.60,NNW,337,0.0,0.0,41,0.00,CLR,,0.00,WeatherDisplay:10.37,2013-12-04 06:44:00,
2013-12-04 01:45:00,36.5,15.0,29.60,ESE,112,0.0,0.0,41,0.00,CLR,,0.00,WeatherDisplay:10.37,2013-12-04 06:45:00,
2013-12-04 01:47:00,36.5,15.0,29.56,ESE,112,0.0,0.0,41,0.00,CLR,,0.00,WeatherDisplay:10.37,2013-12-04 06:47:00,
2013-12-04 01:48:00,36.5,15.6,29.55,ESE,112,0.0,0.0,42,0.00,CLR,,0.00,WeatherDisplay:10.37,2013-12-04 06:48:00,
2013-12-04 01:49:00,36.5,15.6,29.55,ENE,67,0.0,0.0,42,0.00,CLR,,0.00,WeatherDisplay:10.37,2013-12-04 06:49:00,
2013-12-04 01:50:00,36.5,15.6,29.54,ENE,67,0.0,0.0,42,0.00,CLR,,0.00,WeatherDisplay:10.37,2013-12-04 06:50:00,
2013-12-04 01:52:00,36.7,15.2,29.64,NE,45,0.0,0.0,41,0.00,CLR,,0.00,WeatherDisplay:10.37,2013-12-04 06:52:00,
2013-12-04 01:53:00,36.7,15.2,29.58,NE,45,1.2,0.0,41,0.00,CLR,,0.00,WeatherDisplay:10.37,2013-12-04 06:53:00,
2013-12-04 01:54:00,36.7,15.2,29.58,ESE,112,1.2,1.2,41,0.00,CLR,,0.00,WeatherDisplay:10.37,2013-12-04 06:54:00,
2013-12-04 01:55:00,36.7,15.2,29.58,ESE,112,1.2,1.2,41,0.00,CLR,,0.00,WeatherDisplay:10.37,2013-12-04 06:55:00,
2013-12-04 01:57:00,36.7,15.2,29.57,ENE,67,1.2,0.0,41,0.00,CLR,,0.00,WeatherDisplay:10.37,2013-12-04 06:57:00,
2013-12-04 01:59:00,36.7,14.6,29.55,ENE,67,1.2,1.2,40,0.00,CLR,,0.00,WeatherDisplay:10.37,2013-12-04 06:59:00,
2013-12-04 02:00:00,36.7,14.6,29.55,SE,135,1.2,0.0,40,0.00,CLR,,0.00,WeatherDisplay:10.37,2013-12-04 07:00:00,
2013-12-04 02:02:00,36.7,14.6,29.62,SE,135,1.2,0.0,40,0.00,CLR,,0.00,WeatherDisplay:10.37,2013-12-04 07:02:00,
2013-12-04 02:05:00,36.7,14.0,29.63,NE,45,1.2,0.0,39,0.00,CLR,,0.00,WeatherDisplay:10.37,2013-12-04 07:05:00,
2013-12-04 02:06:00,36.7,14.0,29.63,East,90,1.2,0.0,39,0.00,CLR,,0.00,WeatherDisplay:10.37,2013-12-04 07:06:00,
2013-12-04 02:07:00,36.7,14.0,29.63,East,90,1.2,0.0,39,0.00,CLR,,0.00,WeatherDisplay:10.37,2013-12-04 07:07:00,
2013-12-04 02:08:00,36.9,13.6,29.63,East,90,1.2,0.0,38,0.00,CLR,,0.00,WeatherDisplay:10.37,2013-12-04 07:08:00,
2013-12-04 02:10:00,36.9,13.6,29.63,East,90,1.2,0.0,38,0.00,CLR,,0.00,WeatherDisplay:10.37,2013-12-04 07:10:00,
2013-12-04 02:11:00,36.9,13.0,29.58,East,90,1.2,0.0,37,0.00,CLR,,0.00,WeatherDisplay:10.37,2013-12-04 07:11:00,
2013-12-04 02:12:00,36.9,13.0,29.52,East,90,1.2,0.0,37,0.00,CLR,,0.00,WeatherDisplay:10.37,2013-12-04 07:12:00,
2013-12-04 02:14:00,36.9,13.0,29.62,ESE,112,1.2,1.2,37,0.00,CLR,,0.00,WeatherDisplay:10.37,2013-12-04 07:14:00,
2013-12-04 02:15:00,36.9,13.0,29.62,SE,135,1.2,1.2,37,0.00,CLR,,0.00,WeatherDisplay:10.37,2013-12-04 07:15:00,
2013-12-04 02:16:00,36.9,13.0,29.62,SE,135,1.2,1.2,37,0.00,CLR,,0.00,WeatherDisplay:10.37,2013-12-04 07:16:00,
2013-12-04 02:19:00,36.9,13.6,29.57,East,90,1.3,0.0,38,0.00,CLR,,0.00,WeatherDisplay:10.37,2013-12-04 07:19:00,
2013-12-04 02:21:00,37.0,13.7,29.57,East,90,1.3,0.0,38,0.00,CLR,,0.00,WeatherDisplay:10.37,2013-12-04 07:21:00,
2013-12-04 02:22:00,37.0,13.7,29.57,ESE,112,1.3,0.0,38,0.00,CLR,,0.00,WeatherDisplay:10.37,2013-12-04 07:22:00,
2013-12-04 02:23:00,37.0,13.7,29.59,NE,45,1.2,0.0,38,0.00,CLR,,0.00,WeatherDisplay:10.37,2013-12-04 07:23:00,
2013-12-04 02:25:00,37.0,13.7,29.58,NE,45,1.2,0.0,38,0.00,CLR,,0.00,WeatherDisplay:10.37,2013-12-04 07:25:00,
2013-12-04 02:27:00,37.0,13.7,29.58,ENE,67,1.2,0.0,38,0.00,CLR,,0.00,WeatherDisplay:10.37,2013-12-04 07:27:00,
2013-12-04 02:29:00,37.0,13.7,29.58,NE,45,1.2,0.0,38,0.00,CLR,,0.00,WeatherDisplay:10.37,2013-12-04 07:29:00,
2013-12-04 02:30:00,37.0,13.7,29.58,SE,135,1.2,1.2,38,0.00,CLR,,0.00,WeatherDisplay:10.37,2013-12-04 07:30:00,
2013-12-04 02:31:00,37.0,13.7,29.58,SE,135,1.2,1.2,38,0.00,CLR,,0.00,WeatherDisplay:10.37,2013-12-04 07:31:00,
2013-12-04 02:33:00,37.0,13.7,29.55,ESE,112,1.2,0.0,38,0.00,CLR,,0.00,WeatherDisplay:10.37,2013-12-04 07:33:00,
2013-12-04 02:34:00,37.0,13.7,29.55,SE,135,1.2,1.2,38,0.00,CLR,,0.00,WeatherDisplay:10.37,2013-12-04 07:34:00,
2013-12-04 02:35:00,37.0,13.7,29.60,ENE,67,1.2,1.2,38,0.00,CLR,,0.00,WeatherDisplay:10.37,2013-12-04 07:35:00,
2013-12-04 02:36:00,37.2,13.9,29.60,ENE,67,1.2,0.0,38,0.00,CLR,,0.00,WeatherDisplay:10.37,2013-12-04 07:36:00,
2013-12-04 02:38:00,37.2,13.9,29.55,SE,135,1.2,0.0,38,0.00,CLR,,0.00,WeatherDisplay:10.37,2013-12-04 07:38:00,
2013-12-04 02:39:00,37.2,14.5,29.58,ENE,67,1.2,0.0,39,0.00,CLR,,0.00,WeatherDisplay:10.37,2013-12-04 07:39:00,
2013-12-04 02:40:00,37.2,14.5,29.58,ENE,67,1.2,0.0,39,0.00,CLR,,0.00,WeatherDisplay:10.37,2013-12-04 07:40:00,
2013-12-04 02:41:00,37.2,14.5,29.58,ENE,67,1.2,0.0,39,0.00,CLR,,0.00,WeatherDisplay:10.37,2013-12-04 07:41:00,
2013-12-04 02:43:00,37.4,14.7,29.61,SE,135,1.2,0.0,39,0.00,CLR,,0.00,WeatherDisplay:10.37,2013-12-04 07:43:00,
2013-12-04 02:44:00,37.4,14.7,29.61,SE,135,1.2,0.0,39,0.00,CLR,,0.00,WeatherDisplay:10.37,2013-12-04 07:44:00,
2013-12-04 02:45:00,37.4,14.7,29.58,ESE,112,1.2,0.0,39,0.00,CLR,,0.00,WeatherDisplay:10.37,2013-12-04 07:45:00,
2013-12-04 02:47:00,37.4,14.1,29.62,ENE,67,1.2,0.0,38,0.00,CLR,,0.00,WeatherDisplay:10.37,2013-12-04 07:47:00,
2013-12-04 02:48:00,37.4,14.7,29.58,ENE,67,1.2,0.0,39,0.00,CLR,,0.00,WeatherDisplay:10.37,2013-12-04 07:48:00,
2013-12-04 02:50:00,37.6,14.8,29.58,NNE,22,1.2,0.0,39,0.00,CLR,,0.00,WeatherDisplay:10.37,2013-12-04 07:50:00,
2013-12-04 02:52:00,37.6,14.8,29.58,NE,45,1.2,0.0,39,0.00,CLR,,0.00,WeatherDisplay:10.37,2013-12-04 07:52:00,
2013-12-04 02:53:00,37.6,14.8,29.58,East,90,1.2,0.0,39,0.00,CLR,,0.00,WeatherDisplay:10.37,2013-12-04 07:53:00,
2013-12-04 02:56:00,37.8,15.0,29.60,ESE,112,1.2,0.0,39,0.00,CLR,,0.00,WeatherDisplay:10.37,2013-12-04 07:56:00,
2013-12-04 02:57:00,37.8,15.0,29.64,East,90,1.2,0.0,39,0.00,CLR,,0.00,WeatherDisplay:10.37,2013-12-04 07:57:00,
2013-12-04 02:58:00,37.8,15.0,29.63,East,90,1.2,0.0,39,0.00,CLR,,0.00,WeatherDisplay:10.37,2013-12-04 07:58:00,
2013-12-04 02:59:00,37.8,15.0,29.63,East,90,1.2,0.0,39,0.00,CLR,,0.00,WeatherDisplay:10.37,2013-12-04 07:59:00,
2013-12-04 03:01:00,37.8,15.6,29.65,ENE,67,1.2,0.0,40,0.00,CLR,,0.00,WeatherDisplay:10.37,2013-12-04 08:01:00,
2013-12-04 03:04:00,37.8,15.6,29.61,ENE,67,1.2,0.0,40,0.00,CLR,,0.00,WeatherDisplay:10.37,2013-12-04 08:04:00,
2013-12-04 03:05:00,37.8,15.6,29.59,ENE,67,1.2,0.0,40,0.00,CLR,,0.00,WeatherDisplay:10.37,2013-12-04 08:05:00,
2013-12-04 03:06:00,37.9,15.7,29.59,ENE,67,1.2,0.0,40,0.00,CLR,,0.00,WeatherDisplay:10.37,2013-12-04 08:06:00,
2013-12-04 03:07:00,37.9,15.7,29.61,North,0,1.2,0.0,40,0.00,CLR,,0.00,WeatherDisplay:10.37,2013-12-04 08:07:00,
2013-12-04 03:08:00,37.9,15.7,29.62,ESE,112,1.2,0.0,40,0.00,CLR,,0.00,WeatherDisplay:10.37,2013-12-04 08:08:00,
2013-12-04 03:09:00,37.9,15.7,29.62,ESE,112,1.2,0.0,40,0.00,CLR,,0.00,WeatherDisplay:10.37,2013-12-04 08:09:00,
2013-12-04 03:11:00,37.9,15.7,29.64,ESE,112,1.2,0.0,40,0.00,CLR,,0.00,WeatherDisplay:10.37,2013-12-04 08:11:00,
2013-12-04 03:12:00,37.9,15.7,29.66,East,90,1.2,0.0,40,0.00,CLR,,0.00,WeatherDisplay:10.37,2013-12-04 08:12:00,
2013-12-04 03:13:00,37.9,15.7,29.63,East,90,1.2,0.0,40,0.00,CLR,,0.00,WeatherDisplay:10.37,2013-12-04 08:13:00,
2013-12-04 03:15:00,37.9,15.1,29.67,East,90,1.2,0.0,39,0.00,CLR,,0.00,WeatherDisplay:10.37,2013-12-04 08:15:00,
2013-12-04 03:16:00,37.9,15.1,29.67,East,90,1.2,0.0,39,0.00,CLR,,0.00,WeatherDisplay:10.37,2013-12-04 08:16:00,
2013-12-04 03:17:00,38.1,15.3,29.68,ENE,67,1.2,0.0,39,0.00,CLR,,0.00,WeatherDisplay:10.37,2013-12-04 08:17:00,
2013-12-04 03:18:00,38.1,15.3,29.68,ENE,67,1.2,0.0,39,0.00,CLR,,0.00,WeatherDisplay:10.37,2013-12-04 08:18:00,
2013-12-04 03:20:00,38.1,15.3,29.60,ENE,67,1.2,0.0,39,0.00,CLR,,0.00,WeatherDisplay:10.37,2013-12-04 08:20:00,
2013-12-04 03:21:00,38.1,15.3,29.60,ENE,67,1.2,0.0,39,0.00,CLR,,0.00,WeatherDisplay:10.37,2013-12-04 08:21:00,
2013-12-04 03:23:00,38.1,15.3,29.60,ENE,67,1.2,0.0,39,0.00,CLR,,0.00,WeatherDisplay:10.37,2013-12-04 08:23:00,
2013-12-04 03:24:00,38.1,15.9,29.63,ENE,67,0.0,0.0,40,0.00,CLR,,0.00,WeatherDisplay:10.37,2013-12-04 08:24:00,
2013-12-04 03:26:00,38.1,15.9,29.56,ENE,67,0.0,0.0,40,0.00,CLR,,0.00,WeatherDisplay:10.37,2013-12-04 08:26:00,
2013-12-04 03:28:00,38.1,15.9,29.57,ENE,67,0.0,0.0,40,0.00,CLR,,0.00,WeatherDisplay:10.37,2013-12-04 08:28:00,
2013-12-04 03:29:00,38.1,15.9,29.63,East,90,0.0,0.0,40,0.00,CLR,,0.00,WeatherDisplay:10.37,2013-12-04 08:29:00,
2013-12-04 03:31:00,38.1,15.9,29.63,East,90,0.0,0.0,40,0.00,CLR,,0.00,WeatherDisplay:10.37,2013-12-04 08:31:00,
2013-12-04 03:32:00,38.1,15.9,29.59,East,90,0.0,0.0,40,0.00,CLR,,0.00,WeatherDisplay:10.37,2013-12-04 08:32:00,
2013-12-04 03:34:00,38.3,16.1,29.59,East,90,0.0,0.0,40,0.00,CLR,,0.00,WeatherDisplay:10.37,2013-12-04 08:34:00,
2013-12-04 03:35:00,38.3,16.1,29.63,East,90,0.0,0.0,40,0.00,CLR,,0.00,WeatherDisplay:10.37,2013-12-04 08:35:00,
2013-12-04 03:36:00,38.3,16.1,29.63,East,90,0.0,0.0,40,0.00,CLR,,0.00,WeatherDisplay:10.37,2013-12-04 08:36:00,
2013-12-04 03:37:00,38.3,16.1,29.63,East,90,0.0,0.0,40,0.00,CLR,,0.00,WeatherDisplay:10.37,2013-12-04 08:37:00,
2013-12-04 03:38:00,38.3,16.1,29.57,East,90,0.0,0.0,40,0.00,CLR,,0.00,WeatherDisplay:10.37,2013-12-04 08:38:00,
2013-12-04 03:40:00,38.3,15.5,29.57,East,90,0.0,0.0,39,0.00,CLR,,0.00,WeatherDisplay:10.37,2013-12-04 08:40:00,
2013-12-04 03:42:00,38.3,15.5,29.62,East,90,0.0,0.0,39,0.00,CLR,,0.00,WeatherDisplay:10.37,2013-12-04 08:42:00,
2013-12-04 03:43:00,38.3,15.5,29.62,East,90,0.0,0.0,39,0.00,CLR,,0.00,WeatherDisplay:10.37,2013-12-04 08:43:00,
2013-12-04 03:45:00,38.3,15.5,29.61,East,90,0.0,0.0,39,0.00,CLR,,0.00,WeatherDisplay:10.37,2013-12-04 08:45:00,
2013-12-04 03:47:00,38.3,15.5,29.61,East,90,0.0,0.0,39,0.00,CLR,,0.00,WeatherDisplay:10.37,2013-12-04 08:47:00,
2013-12-04 03:48:00,38.3,15.5,29.60,East,90,0.0,0.0,39,0.00,CLR,,0.00,WeatherDisplay:10.37,2013-12-04 08:48:00,
2013-12-04 03:50:00,38.3,15.5,29.64,SE,135,0.0,0.0,39,0.00,CLR,,0.00,WeatherDisplay:10.37,2013-12-04 08:50:00,
2013-12-04 03:51:00,38.3,15.5,29.64,SE,135,0.0,0.0,39,0.00,CLR,,0.00,WeatherDisplay:10.37,2013-12-04 08:51:00,
2013-12-04 03:52:00,38.5,15.6,29.64,ESE,112,0.0,0.0,39,0.00,CLR,,0.00,WeatherDisplay:10.37,2013-12-04 08:52:00,
2013-12-04 03:53:00,38.5,15.6,29.64,ESE,112,0.0,0.0,39,0.00,CLR,,0.00,WeatherDisplay:10.37,2013-12-04 08:53:00,
2013-12-04 03:56:00,38.5,15.0,29.61,ESE,112,0.0,0.0,38,0.00,CLR,,0.00,WeatherDisplay:10.37,2013-12-04 08:56:00,
2013-12-04 03:57:00,38.5,15.0,29.61,ESE,112,0.0,0.0,38,0.00,CLR,,0.00,WeatherDisplay:10.37,2013-12-04 08:57:00,
2013-12-04 03:58:00,38.5,15.0,29.61,ESE,112,0.0,0.0,38,0.00,CLR,,0.00,WeatherDisplay:10.37,2013-12-04 08:58:00,
2013-12-04 03:59:00,38.5,15.0,29.65,ESE,112,0.0,0.0,38,0.00,CLR,,0.00,WeatherDisplay:10.37,2013-12-04 08:59:00,
2013-12-04 04:02:00,38.5,15.6,29.55,East,90,0.0,0.0,39,0.00,CLR,,0.00,WeatherDisplay:10.37,2013-12-04 09:02:00,
2013-12-04 04:03:00,38.5,15.6,29.58,East,90,0.0,0.0,39,0.00,CLR,,0.00,WeatherDisplay:10.37,2013-12-04 09:03:00,
2013-12-04 04:04:00,38.7,15.8,29.58,East,90,0.0,0.0,39,0.00,CLR,,0.00,WeatherDisplay:10.37,2013-12-04 09:04:00,
2013-12-04 04:06:00,38.5,15.0,29.63,East,90,0.0,0.0,38,0.00,CLR,,0.00,WeatherDisplay:10.37,2013-12-04 09:06:00,
2013-12-04 04:08:00,38.5,15.0,29.56,ENE,67,0.0,0.0,38,0.00,CLR,,0.00,WeatherDisplay:10.37,2013-12-04 09:08:00,
2013-12-04 04:09:00,38.5,15.0,29.56,ENE,67,0.0,0.0,38,0.00,CLR,,0.00,WeatherDisplay:10.37,2013-12-04 09:09:00,
2013-12-04 04:10:00,38.5,15.0,29.56,ENE,67,0.0,0.0,38,0.00,CLR,,0.00,WeatherDisplay:10.37,2013-12-04 09:10:00,
2013-12-04 04:13:00,38.5,15.0,29.56,ENE,67,0.0,0.0,38,0.00,CLR,,0.00,WeatherDisplay:10.37,2013-12-04 09:13:00,
2013-12-04 04:14:00,38.5,15.0,29.58,East,90,0.0,0.0,38,0.00,CLR,,0.00,WeatherDisplay:10.37,2013-12-04 09:14:00,
2013-12-04 04:15:00,38.5,15.0,29.58,East,90,0.0,0.0,38,0.00,CLR,,0.00,WeatherDisplay:10.37,2013-12-04 09:15:00,
2013-12-04 04:17:00,38.5,14.4,29.58,ESE,112,0.0,0.0,37,0.00,CLR,,0.00,WeatherDisplay:10.37,2013-12-04 09:17:00,
2013-12-04 04:19:00,38.7,14.6,29.58,ESE,112,0.0,0.0,37,0.00,CLR,,0.00,WeatherDisplay:10.37,2013-12-04 09:19:00,
2013-12-04 04:20:00,38.7,14.6,29.58,ESE,112,0.0,0.0,37,0.00,CLR,,0.00,WeatherDisplay:10.37,2013-12-04 09:20:00,
2013-12-04 04:21:00,38.7,14.6,29.58,ESE,112,0.0,0.0,37,0.00,CLR,,0.00,WeatherDisplay:10.37,2013-12-04 09:21:00,
2013-12-04 04:22:00,38.7,14.6,29.58,ESE,112,0.0,0.0,37,0.00,CLR,,0.00,WeatherDisplay:10.37,2013-12-04 09:22:00,
2013-12-04 04:24:00,38.7,15.2,29.62,ESE,112,0.0,0.0,38,0.00,CLR,,0.00,WeatherDisplay:10.37,2013-12-04 09:24:00,
2013-12-04 04:25:00,38.8,15.4,29.62,ESE,112,0.0,0.0,38,0.00,CLR,,0.00,WeatherDisplay:10.37,2013-12-04 09:25:00,
2013-12-04 04:27:00,38.8,15.4,29.63,ESE,112,0.0,0.0,38,0.00,CLR,,0.00,WeatherDisplay:10.37,2013-12-04 09:27:00,
2013-12-04 04:28:00,38.7,15.2,29.63,ESE,112,0.0,0.0,38,0.00,CLR,,0.00,WeatherDisplay:10.37,2013-12-04 09:28:00,
2013-12-04 04:30:00,38.7,15.2,29.61,ESE,112,0.0,0.0,38,0.00,CLR,,0.00,WeatherDisplay:10.37,2013-12-04 09:30:00,
2013-12-04 04:31:00,38.7,15.2,29.61,ESE,112,0.0,0.0,38,0.00,CLR,,0.00,WeatherDisplay:10.37,2013-12-04 09:31:00,
2013-12-04 04:32:00,38.7,14.6,29.59,ESE,112,0.0,0.0,37,0.00,CLR,,0.00,WeatherDisplay:10.37,2013-12-04 09:32:00,
2013-12-04 04:33:00,38.7,14.6,29.59,ESE,112,0.0,0.0,37,0.00,CLR,,0.00,WeatherDisplay:10.37,2013-12-04 09:33:00,
2013-12-04 04:35:00,38.7,14.6,29.59,ESE,112,0.0,0.0,37,0.00,CLR,,0.00,WeatherDisplay:10.37,2013-12-04 09:35:00,
2013-12-04 04:36:00,38.7,14.6,29.59,ESE,112,0.0,0.0,37,0.00,CLR,,0.00,WeatherDisplay:10.37,2013-12-04 09:36:00,
2013-12-04 04:37:00,38.7,14.6,29.59,ESE,112,0.0,0.0,37,0.00,CLR,,0.00,WeatherDisplay:10.37,2013-12-04 09:37:00,
2013-12-04 04:39:00,38.7,15.2,29.59,ESE,112,0.0,0.0,38,0.00,CLR,,0.00,WeatherDisplay:10.37,2013-12-04 09:39:00,
2013-12-04 04:40:00,38.7,15.2,29.59,ESE,112,0.0,0.0,38,0.00,CLR,,0.00,WeatherDisplay:10.37,2013-12-04 09:40:00,
2013-12-04 04:41:00,38.7,15.2,29.60,NE,45,0.0,0.0,38,0.00,CLR,,0.00,WeatherDisplay:10.37,2013-12-04 09:41:00,
2013-12-04 04:42:00,38.7,15.2,29.60,ENE,67,0.0,0.0,38,0.00,CLR,,0.00,WeatherDisplay:10.37,2013-12-04 09:42:00,
2013-12-04 04:43:00,38.7,15.2,29.60,ENE,67,0.0,0.0,38,0.00,CLR,,0.00,WeatherDisplay:10.37,2013-12-04 09:43:00,
2013-12-04 04:44:00,38.7,15.2,29.60,ENE,67,0.0,0.0,38,0.00,CLR,,0.00,WeatherDisplay:10.37,2013-12-04 09:44:00,
2013-12-04 04:45:00,38.7,15.8,29.63,ENE,67,0.0,0.0,39,0.00,CLR,,0.00,WeatherDisplay:10.37,2013-12-04 09:45:00,
2013-12-04 04:46:00,38.7,15.8,29.63,ENE,67,0.0,0.0,39,0.00,CLR,,0.00,WeatherDisplay:10.37,2013-12-04 09:46:00,
2013-12-04 04:47:00,38.7,15.8,29.61,ENE,67,0.0,0.0,39,0.00,CLR,,0.00,WeatherDisplay:10.37,2013-12-04 09:47:00,
2013-12-04 04:48:00,38.7,15.8,29.61,East,90,0.0,0.0,39,0.00,CLR,,0.00,WeatherDisplay:10.37,2013-12-04 09:48:00,
2013-12-04 04:49:00,38.7,15.8,29.61,East,90,0.0,0.0,39,0.00,CLR,,0.00,WeatherDisplay:10.37,2013-12-04 09:49:00,
2013-12-04 04:50:00,38.7,15.8,29.61,East,90,0.0,0.0,39,0.00,CLR,,0.00,WeatherDisplay:10.37,2013-12-04 09:50:00,
2013-12-04 04:52:00,38.7,15.2,29.61,East,90,0.0,0.0,38,0.00,CLR,,0.00,WeatherDisplay:10.37,2013-12-04 09:52:00,
2013-12-04 04:53:00,38.7,15.2,29.61,East,90,0.0,0.0,38,0.00,CLR,,0.00,WeatherDisplay:10.37,2013-12-04 09:53:00,
2013-12-04 04:54:00,38.7,15.2,29.62,East,90,0.0,0.0,38,0.00,CLR,,0.00,WeatherDisplay:10.37,2013-12-04 09:54:00,
2013-12-04 04:55:00,38.7,15.2,29.62,East,90,0.0,0.0,38,0.00,CLR,,0.00,WeatherDisplay:10.37,2013-12-04 09:55:00,
2013-12-04 04:58:00,38.8,15.4,29.63,East,90,0.0,0.0,38,0.00,CLR,,0.00,WeatherDisplay:10.37,2013-12-04 09:58:00,
2013-12-04 04:59:00,38.8,15.4,29.67,East,90,0.0,0.0,38,0.00,CLR,,0.00,WeatherDisplay:10.37,2013-12-04 09:59:00,
2013-12-04 05:00:00,38.8,15.4,29.67,East,90,0.0,0.0,38,0.00,CLR,,0.00,WeatherDisplay:10.37,2013-12-04 10:00:00,
2013-12-04 05:01:00,38.8,15.4,29.67,East,90,0.0,0.0,38,0.00,CLR,,0.00,WeatherDisplay:10.37,2013-12-04 10:01:00,
2013-12-04 05:02:00,38.8,16.0,29.57,East,90,0.0,0.0,39,0.00,CLR,,0.00,WeatherDisplay:10.37,2013-12-04 10:02:00,
2013-12-04 05:04:00,38.8,16.0,29.57,East,90,0.0,0.0,39,0.00,CLR,,0.00,WeatherDisplay:10.37,2013-12-04 10:04:00,
2013-12-04 05:05:00,38.8,16.0,29.57,East,90,0.0,0.0,39,0.00,CLR,,0.00,WeatherDisplay:10.37,2013-12-04 10:05:00,
2013-12-04 05:06:00,38.8,16.0,29.59,East,90,0.0,0.0,39,0.00,CLR,,0.00,WeatherDisplay:10.37,2013-12-04 10:06:00,
2013-12-04 05:08:00,38.8,16.0,29.59,East,90,0.0,0.0,39,0.00,CLR,,0.00,WeatherDisplay:10.37,2013-12-04 10:08:00,
2013-12-04 05:09:00,38.8,16.0,29.58,East,90,0.0,0.0,39,0.00,CLR,,0.00,WeatherDisplay:10.37,2013-12-04 10:09:00,
2013-12-04 05:11:00,39.0,16.1,29.57,East,90,0.0,0.0,39,0.00,CLR,,0.00,WeatherDisplay:10.37,2013-12-04 10:11:00,
2013-12-04 05:12:00,38.8,16.0,29.57,East,90,0.0,0.0,39,0.00,CLR,,0.00,WeatherDisplay:10.37,2013-12-04 10:12:00,
2013-12-04 05:14:00,38.8,16.0,29.57,East,90,0.0,0.0,39,0.00,CLR,,0.00,WeatherDisplay:10.37,2013-12-04 10:14:00,
2013-12-04 05:15:00,38.8,15.4,29.56,East,90,0.0,0.0,38,0.00,CLR,,0.00,WeatherDisplay:10.37,2013-12-04 10:15:00,
2013-12-04 05:18:00,39.0,15.5,29.62,East,90,0.0,0.0,38,0.00,CLR,,0.00,WeatherDisplay:10.37,2013-12-04 10:18:00,
2013-12-04 05:19:00,39.0,15.5,29.62,East,90,0.0,0.0,38,0.00,CLR,,0.00,WeatherDisplay:10.37,2013-12-04 10:19:00,
2013-12-04 05:20:00,39.0,14.9,29.60,East,90,0.0,0.0,37,0.00,CLR,,0.00,WeatherDisplay:10.37,2013-12-04 10:20:00,
2013-12-04 05:23:00,39.0,14.9,29.57,East,90,0.0,0.0,37,0.00,CLR,,0.00,WeatherDisplay:10.37,2013-12-04 10:23:00,
2013-12-04 05:24:00,39.0,14.9,29.57,East,90,0.0,0.0,37,0.00,CLR,,0.00,WeatherDisplay:10.37,2013-12-04 10:24:00,
2013-12-04 05:25:00,39.0,14.9,29.64,East,90,0.0,0.0,37,0.00,CLR,,0.00,WeatherDisplay:10.37,2013-12-04 10:25:00,
2013-12-04 05:26:00,39.0,14.9,29.63,East,90,0.0,0.0,37,0.00,CLR,,0.00,WeatherDisplay:10.37,2013-12-04 10:26:00,
2013-12-04 05:27:00,39.0,14.9,29.63,East,90,0.0,0.0,37,0.00,CLR,,0.00,WeatherDisplay:10.37,2013-12-04 10:27:00,
2013-12-04 05:28:00,39.0,14.9,29.67,ESE,112,0.0,0.0,37,0.00,CLR,,0.00,WeatherDisplay:10.37,2013-12-04 10:28:00,
2013-12-04 05:29:00,39.0,14.9,29.67,ESE,112,0.0,0.0,37,0.00,CLR,,0.00,WeatherDisplay:10.37,2013-12-04 10:29:00,
2013-12-04 05:31:00,39.0,14.9,29.65,ESE,112,0.0,0.0,37,0.00,CLR,,0.00,WeatherDisplay:10.37,2013-12-04 10:31:00,
2013-12-04 05:33:00,39.0,14.9,29.60,ESE,112,0.0,0.0,37,0.00,CLR,,0.00,WeatherDisplay:10.37,2013-12-04 10:33:00,
2013-12-04 05:34:00,39.0,14.9,29.60,ESE,112,0.0,0.0,37,0.00,CLR,,0.00,WeatherDisplay:10.37,2013-12-04 10:34:00,
2013-12-04 05:37:00,39.0,14.3,29.60,ESE,112,0.0,0.0,36,0.00,CLR,,0.00,WeatherDisplay:10.37,2013-12-04 10:37:00,
2013-12-04 05:38:00,39.0,14.3,29.61,ESE,112,0.0,0.0,36,0.00,CLR,,0.00,WeatherDisplay:10.37,2013-12-04 10:38:00,
2013-12-04 05:39:00,39.0,14.3,29.61,ESE,112,0.0,0.0,36,0.00,CLR,,0.00,WeatherDisplay:10.37,2013-12-04 10:39:00,
2013-12-04 05:40:00,39.0,14.3,29.60,ESE,112,0.0,0.0,36,0.00,CLR,,0.00,WeatherDisplay:10.37,2013-12-04 10:40:00,
2013-12-04 05:42:00,39.0,14.3,29.61,ESE,112,0.0,0.0,36,0.00,CLR,,0.00,WeatherDisplay:10.37,2013-12-04 10:42:00,
2013-12-04 05:43:00,39.0,14.3,29.58,ESE,112,0.0,0.0,36,0.00,CLR,,0.00,WeatherDisplay:10.37,2013-12-04 10:43:00,
2013-12-04 05:44:00,39.0,14.3,29.58,ESE,112,0.0,0.0,36,0.00,CLR,,0.00,WeatherDisplay:10.37,2013-12-04 10:44:00,
2013-12-04 05:46:00,39.0,14.9,29.66,ESE,112,0.0,0.0,37,0.00,CLR,,0.00,WeatherDisplay:10.37,2013-12-04 10:46:00,
2013-12-04 05:48:00,39.0,14.9,29.63,ESE,112,0.0,0.0,37,0.00,CLR,,0.00,WeatherDisplay:10.37,2013-12-04 10:48:00,
2013-12-04 05:49:00,39.0,14.3,29.63,ESE,112,0.0,0.0,36,0.00,CLR,,0.00,WeatherDisplay:10.37,2013-12-04 10:49:00,
2013-12-04 05:50:00,39.0,14.3,29.63,ESE,112,0.0,0.0,36,0.00,CLR,,0.00,WeatherDisplay:10.37,2013-12-04 10:50:00,
2013-12-04 05:51:00,39.0,14.3,29.55,ESE,112,0.0,0.0,36,0.00,CLR,,0.00,WeatherDisplay:10.37,2013-12-04 10:51:00,
2013-12-04 05:52:00,39.0,14.3,29.55,ESE,112,0.0,0.0,36,0.00,CLR,,0.00,WeatherDisplay:10.37,2013-12-04 10:52:00,
2013-12-04 05:54:00,38.8,14.1,29.57,ESE,112,0.0,0.0,36,0.00,CLR,,0.00,WeatherDisplay:10.37,2013-12-04 10:54:00,
2013-12-04 05:55:00,38.8,14.1,29.57,ESE,112,0.0,0.0,36,0.00,CLR,,0.00,WeatherDisplay:10.37,2013-12-04 10:55:00,
2013-12-04 05:56:00,39.0,14.3,29.57,East,90,0.0,0.0,36,0.00,CLR,,0.00,WeatherDisplay:10.37,2013-12-04 10:56:00,
2013-12-04 05:58:00,39.0,13.6,29.56,East,90,0.0,0.0,35,0.00,CLR,,0.00,WeatherDisplay:10.37,2013-12-04 10:58:00,
2013-12-04 06:00:00,38.8,13.5,29.57,East,90,0.0,0.0,35,0.00,CLR,,0.00,WeatherDisplay:10.37,2013-12-04 11:00:00,
2013-12-04 06:03:00,38.8,13.5,29.61,East,90,0.0,0.0,35,0.00,CLR,,0.00,WeatherDisplay:10.37,2013-12-04 11:03:00,
2013-12-04 06:04:00,38.8,12.8,29.61,East,90,0.0,0.0,34,0.00,CLR,,0.00,WeatherDisplay:10.37,2013-12-04 11:04:00,
2013-12-04 06:05:00,38.8,13.5,29.57,ENE,67,0.0,0.0,35,0.00,CLR,,0.00,WeatherDisplay:10.37,2013-12-04 11:05:00,
2013-12-04 06:08:00,38.8,13.5,29.52,East,90,0.0,0.0,35,0.00,CLR,,0.00,WeatherDisplay:10.37,2013-12-04 11:08:00,
2013-12-04 06:09:00,38.8,13.5,29.52,ESE,112,0.0,0.0,35,0.00,CLR,,0.00,WeatherDisplay:10.37,2013-12-04 11:09:00,
2013-12-04 06:10:00,38.8,13.5,29.52,ESE,112,0.0,0.0,35,0.00,CLR,,0.00,WeatherDisplay:10.37,2013-12-04 11:10:00,
2013-12-04 06:12:00,38.8,13.5,29.61,ESE,112,0.0,0.0,35,0.00,CLR,,0.00,WeatherDisplay:10.37,2013-12-04 11:12:00,
2013-12-04 06:13:00,38.8,13.5,29.61,NE,45,0.0,0.0,35,0.00,CLR,,0.00,WeatherDisplay:10.37,2013-12-04 11:13:00,
2013-12-04 06:14:00,38.8,13.5,29.59,NW,315,0.0,0.0,35,0.00,CLR,,0.00,WeatherDisplay:10.37,2013-12-04 11:14:00,
2013-12-04 06:15:00,38.8,13.5,29.59,NW,315,0.0,0.0,35,0.00,CLR,,0.00,WeatherDisplay:10.37,2013-12-04 11:15:00,
2013-12-04 06:16:00,38.8,13.5,29.57,NW,315,0.0,0.0,35,0.00,CLR,,0.00,WeatherDisplay:10.37,2013-12-04 11:16:00,
2013-12-04 06:18:00,38.8,14.1,29.59,NNW,337,0.0,0.0,36,0.00,CLR,,0.00,WeatherDisplay:10.37,2013-12-04 11:18:00,
2013-12-04 06:20:00,38.8,14.1,29.65,NNW,337,0.0,0.0,36,0.00,CLR,,0.00,WeatherDisplay:10.37,2013-12-04 11:20:00,
2013-12-04 06:21:00,38.8,14.1,29.54,NNW,337,0.0,0.0,36,0.00,CLR,,0.00,WeatherDisplay:10.37,2013-12-04 11:21:00,
2013-12-04 06:22:00,38.8,14.1,29.54,NNW,337,0.0,0.0,36,0.00,CLR,,0.00,WeatherDisplay:10.37,2013-12-04 11:22:00,
2013-12-04 06:23:00,38.8,14.1,29.54,NNW,337,0.0,0.0,36,0.00,CLR,,0.00,WeatherDisplay:10.37,2013-12-04 11:23:00,
2013-12-04 06:24:00,38.8,14.1,29.54,NNW,337,0.0,0.0,36,0.00,CLR,,0.00,WeatherDisplay:10.37,2013-12-04 11:24:00,
2013-12-04 06:26:00,38.8,14.1,29.61,NNW,337,0.0,0.0,36,0.00,CLR,,0.00,WeatherDisplay:10.37,2013-12-04 11:26:00,
2013-12-04 06:27:00,38.8,14.1,29.55,NNW,337,0.0,0.0,36,0.00,CLR,,0.00,WeatherDisplay:10.37,2013-12-04 11:27:00,
2013-12-04 06:28:00,38.7,14.0,29.55,NNW,337,0.0,0.0,36,0.00,CLR,,0.00,WeatherDisplay:10.37,2013-12-04 11:28:00,
2013-12-04 06:30:00,38.7,14.0,29.65,NNW,337,0.0,0.0,36,0.00,CLR,,0.00,WeatherDisplay:10.37,2013-12-04 11:30:00,
2013-12-04 06:31:00,38.7,14.0,29.65,NNW,337,0.0,0.0,36,0.00,CLR,,0.00,WeatherDisplay:10.37,2013-12-04 11:31:00,
2013-12-04 06:32:00,38.7,14.0,29.65,NNW,337,0.0,0.0,36,0.00,CLR,,0.00,WeatherDisplay:10.37,2013-12-04 11:32:00,
2013-12-04 06:34:00,38.5,13.8,29.55,NNW,337,0.0,0.0,36,0.00,CLR,,0.00,WeatherDisplay:10.37,2013-12-04 11:34:00,
2013-12-04 06:36:00,38.5,14.4,29.56,NNW,337,0.0,0.0,37,0.00,CLR,,0.00,WeatherDisplay:10.37,2013-12-04 11:36:00,
2013-12-04 06:37:00,38.5,14.4,29.57,NNW,337,0.0,0.0,37,0.00,CLR,,0.00,WeatherDisplay:10.37,2013-12-04 11:37:00,
2013-12-04 06:38:00,38.5,14.4,29.57,NNW,337,0.0,0.0,37,0.00,CLR,,0.00,WeatherDisplay:10.37,2013-12-04 11:38:00,
2013-12-04 06:41:00,38.3,14.3,29.57,NNW,337,0.0,0.0,37,0.00,CLR,,0.00,WeatherDisplay:10.37,2013-12-04 11:41:00,
2013-12-04 06:43:00,38.1,14.1,29.61,NNW,337,0.0,0.0,37,0.00,CLR,,0.00,WeatherDisplay:10.37,2013-12-04 11:43:00,
2013-12-04 06:46:00,37.9,13.9,29.57,NNW,337,0.0,0.0,37,0.00,CLR,,0.00,WeatherDisplay:10.37,2013-12-04 11:46:00,
2013-12-04 06:47:00,37.9,13.9,29.57,NNW,337,0.0,0.0,37,0.00,CLR,,0.00,WeatherDisplay:10.37,2013-12-04 11:47:00,
2013-12-04 06:48:00,37.8,13.8,29.58,NW,315,0.0,0.0,37,0.00,CLR,,0.00,WeatherDisplay:10.37,2013-12-04 11:48:00,
2013-12-04 06:49:00,37.8,13.8,29.57,NW,315,0.0,0.0,37,0.00,CLR,,0.00,WeatherDisplay:10.37,2013-12-04 11:49:00,
2013-12-04 06:50:00,37.8,13.8,29.57,NW,315,0.0,0.0,37,0.00,CLR,,0.00,WeatherDisplay:10.37,2013-12-04 11:50:00,
2013-12-04 06:53:00,37.6,13.0,29.59,NW,315,0.0,0.0,36,0.00,CLR,,0.00,WeatherDisplay:10.37,2013-12-04 11:53:00,
2013-12-04 06:54:00,37.6,13.0,29.59,NW,315,0.0,0.0,36,0.00,CLR,,0.00,WeatherDisplay:10.37,2013-12-04 11:54:00,
2013-12-04 06:55:00,37.2,12.7,29.59,NW,315,0.0,0.0,36,0.00,CLR,,0.00,WeatherDisplay:10.37,2013-12-04 11:55:00,
2013-12-04 06:56:00,37.2,12.7,29.59,NW,315,0.0,0.0,36,0.00,CLR,,0.00,WeatherDisplay:10.37,2013-12-04 11:56:00,
2013-12-04 06:58:00,37.2,12.0,29.64,NW,315,0.0,0.0,35,0.00,CLR,,0.00,WeatherDisplay:10.37,2013-12-04 11:58:00,
2013-12-04 07:00:00,37.0,11.9,29.60,NW,315,0.0,0.0,35,0.00,CLR,,0.00,WeatherDisplay:10.37,2013-12-04 12:00:00,
2013-12-04 07:01:00,37.0,12.5,29.60,NW,315,0.0,0.0,36,0.00,CLR,,0.00,WeatherDisplay:10.37,2013-12-04 12:01:00,
2013-12-04 07:02:00,36.9,12.4,29.60,NNW,337,0.0,0.0,36,0.00,CLR,,0.00,WeatherDisplay:10.37,2013-12-04 12:02:00,
2013-12-04 07:04:00,36.9,12.4,29.60,NNW,337,0.0,0.0,36,0.00,CLR,,0.00,WeatherDisplay:10.37,2013-12-04 12:04:00,
2013-12-04 07:05:00,36.9,12.4,29.59,NNW,337,0.0,0.0,36,0.00,CLR,,0.00,WeatherDisplay:10.37,2013-12-04 12:05:00,
2013-12-04 07:07:00,36.9,13.0,29.59,NNW,337,0.0,0.0,37,0.00,CLR,,0.00,WeatherDisplay:10.37,2013-12-04 12:07:00,
2013-12-04 07:08:00,36.9,13.0,29.63,NNW,337,0.0,0.0,37,0.00,CLR,,0.00,WeatherDisplay:10.37,2013-12-04 12:08:00,
2013-12-04 07:09:00,36.9,12.4,29.59,NNW,337,0.0,0.0,36,0.00,CLR,,0.00,WeatherDisplay:10.37,2013-12-04 12:09:00,
2013-12-04 07:11:00,36.9,12.4,29.59,NNW,337,0.0,0.0,36,0.00,CLR,,0.00,WeatherDisplay:10.37,2013-12-04 12:11:00,
2013-12-04 07:12:00,36.9,12.4,29.57,NNW,337,0.0,0.0,36,0.00,CLR,,0.00,WeatherDisplay:10.37,2013-12-04 12:12:00,
2013-12-04 07:13:00,37.0,12.5,29.57,NNW,337,0.0,0.0,36,0.00,CLR,,0.00,WeatherDisplay:10.37,2013-12-04 12:13:00,
2013-12-04 07:16:00,37.0,12.5,29.60,East,90,0.0,0.0,36,0.00,CLR,,0.00,WeatherDisplay:10.37,2013-12-04 12:16:00,
2013-12-04 07:18:00,37.0,12.5,29.60,East,90,0.0,0.0,36,0.00,CLR,,0.00,WeatherDisplay:10.37,2013-12-04 12:18:00,
2013-12-04 07:19:00,37.0,12.5,29.60,East,90,0.0,0.0,36,0.00,CLR,,0.00,WeatherDisplay:10.37,2013-12-04 12:19:00,
2013-12-04 07:21:00,37.0,11.9,29.59,East,90,0.0,0.0,35,0.00,CLR,,0.00,WeatherDisplay:10.37,2013-12-04 12:21:00,
2013-12-04 07:22:00,37.2,12.0,29.59,East,90,0.0,0.0,35,0.00,CLR,,0.00,WeatherDisplay:10.37,2013-12-04 12:22:00,
2013-12-04 07:23:00,37.2,12.0,29.59,East,90,0.0,0.0,35,0.00,CLR,,0.00,WeatherDisplay:10.37,2013-12-04 12:23:00,
2013-12-04 07:24:00,37.2,11.4,29.59,East,90,0.0,0.0,34,0.00,CLR,,0.00,WeatherDisplay:10.37,2013-12-04 12:24:00,
2013-12-04 07:25:00,37.2,11.4,29.65,East,90,0.0,0.0,34,0.00,CLR,,0.00,WeatherDisplay:10.37,2013-12-04 12:25:00,
2013-12-04 07:27:00,37.2,11.4,29.65,East,90,0.0,0.0,34,0.00,CLR,,0.00,WeatherDisplay:10.37,2013-12-04 12:27:00,
2013-12-04 07:28:00,37.2,11.4,29.64,East,90,0.0,0.0,34,0.00,CLR,,0.00,WeatherDisplay:10.37,2013-12-04 12:28:00,
2013-12-04 07:30:00,37.4,11.5,29.58,East,90,0.0,0.0,34,0.00,CLR,,0.00,WeatherDisplay:10.37,2013-12-04 12:30:00,
2013-12-04 07:33:00,37.4,11.5,29.68,East,90,0.0,0.0,34,0.00,CLR,,0.00,WeatherDisplay:10.37,2013-12-04 12:33:00,
2013-12-04 07:34:00,37.4,11.5,29.59,East,90,0.0,0.0,34,0.00,CLR,,0.00,WeatherDisplay:10.37,2013-12-04 12:34:00,
2013-12-04 07:35:00,37.4,11.5,29.59,East,90,0.0,0.0,34,0.00,CLR,,0.00,WeatherDisplay:10.37,2013-12-04 12:35:00,
2013-12-04 07:37:00,37.4,12.2,29.62,East,90,0.0,0.0,35,0.00,CLR,,0.00,WeatherDisplay:10.37,2013-12-04 12:37:00,
2013-12-04 07:39:00,37.6,12.4,29.58,East,90,0.0,0.0,35,0.00,CLR,,0.00,WeatherDisplay:10.37,2013-12-04 12:39:00,
2013-12-04 07:40:00,37.6,12.4,29.63,East,90,0.0,0.0,35,0.00,CLR,,0.00,WeatherDisplay:10.37,2013-12-04 12:40:00,
2013-12-04 07:41:00,37.6,13.0,29.59,East,90,0.0,0.0,36,0.00,CLR,,0.00,WeatherDisplay:10.37,2013-12-04 12:41:00,
2013-12-04 07:42:00,37.6,13.0,29.59,ENE,67,0.0,0.0,36,0.00,CLR,,0.00,WeatherDisplay:10.37,2013-12-04 12:42:00,
2013-12-04 07:44:00,37.6,13.0,29.58,ENE,67,0.0,0.0,36,0.00,CLR,,0.00,WeatherDisplay:10.37,2013-12-04 12:44:00,
2013-12-04 07:45:00,37.6,13.0,29.58,ENE,67,0.0,0.0,36,0.00,CLR,,0.00,WeatherDisplay:10.37,2013-12-04 12:45:00,
2013-12-04 07:47:00,37.6,13.0,29.58,ENE,67,0.0,0.0,36,0.00,CLR,,0.00,WeatherDisplay:10.37,2013-12-04 12:47:00,
2013-12-04 07:48:00,37.6,13.0,29.65,ENE,67,0.0,0.0,36,0.00,CLR,,0.00,WeatherDisplay:10.37,2013-12-04 12:48:00,
2013-12-04 07:50:00,37.8,13.2,29.63,East,90,0.0,0.0,36,0.00,CLR,,0.00,WeatherDisplay:10.37,2013-12-04 12:50:00,
2013-12-04 07:52:00,37.8,13.2,29.63,ENE,67,0.0,0.0,36,0.00,CLR,,0.00,WeatherDisplay:10.37,2013-12-04 12:52:00,
2013-12-04 07:53:00,37.8,13.8,29.66,ENE,67,0.0,0.0,37,0.00,CLR,,0.00,WeatherDisplay:10.37,2013-12-04 12:53:00,
2013-12-04 07:54:00,37.8,13.8,29.60,ENE,67,0.0,0.0,37,0.00,CLR,,0.00,WeatherDisplay:10.37,2013-12-04 12:54:00,
2013-12-04 07:55:00,37.8,13.8,29.60,ENE,67,0.0,0.0,37,0.00,CLR,,0.00,WeatherDisplay:10.37,2013-12-04 12:55:00,
2013-12-04 07:56:00,37.8,13.8,29.60,ENE,67,0.0,0.0,37,0.00,CLR,,0.00,WeatherDisplay:10.37,2013-12-04 12:56:00,
2013-12-04 07:57:00,37.8,13.8,29.61,ENE,67,0.0,0.0,37,0.00,CLR,,0.00,WeatherDisplay:10.37,2013-12-04 12:57:00,
2013-12-04 07:58:00,37.8,14.4,29.61,ENE,67,0.0,0.0,38,0.00,CLR,,0.00,WeatherDisplay:10.37,2013-12-04 12:58:00,
2013-12-04 07:59:00,37.8,14.4,29.64,ENE,67,0.0,0.0,38,0.00,CLR,,0.00,WeatherDisplay:10.37,2013-12-04 12:59:00,
2013-12-04 08:02:00,37.8,14.4,29.64,ENE,67,0.0,0.0,38,0.00,CLR,,0.00,WeatherDisplay:10.37,2013-12-04 13:02:00,
2013-12-04 08:03:00,37.8,14.4,29.60,ENE,67,0.0,0.0,38,0.00,CLR,,0.00,WeatherDisplay:10.37,2013-12-04 13:03:00,
2013-12-04 08:05:00,37.8,14.4,29.60,ENE,67,0.0,0.0,38,0.00,CLR,,0.00,WeatherDisplay:10.37,2013-12-04 13:05:00,
2013-12-04 08:07:00,37.8,14.4,29.59,ENE,67,0.0,0.0,38,0.00,CLR,,0.00,WeatherDisplay:10.37,2013-12-04 13:07:00,
2013-12-04 08:08:00,37.8,13.8,29.61,ENE,67,0.0,0.0,37,0.00,CLR,,0.00,WeatherDisplay:10.37,2013-12-04 13:08:00,
2013-12-04 08:09:00,37.9,13.9,29.61,ENE,67,0.0,0.0,37,0.00,CLR,,0.00,WeatherDisplay:10.37,2013-12-04 13:09:00,
2013-12-04 08:10:00,38.1,14.1,29.61,ENE,67,0.0,0.0,37,0.00,CLR,,0.00,WeatherDisplay:10.37,2013-12-04 13:10:00,
2013-12-04 08:13:00,37.9,13.9,29.62,ENE,67,0.0,0.0,37,0.00,CLR,,0.00,WeatherDisplay:10.37,2013-12-04 13:13:00,
2013-12-04 08:14:00,37.9,13.9,29.56,ENE,67,0.0,0.0,37,0.00,CLR,,0.00,WeatherDisplay:10.37,2013-12-04 13:14:00,
2013-12-04 08:15:00,38.1,14.1,29.56,SSW,202,0.0,0.0,37,0.00,CLR,,0.00,WeatherDisplay:10.37,2013-12-04 13:15:00,
2013-12-04 08:18:00,38.1,13.5,29.67,South,180,0.0,0.0,36,0.00,CLR,,0.00,WeatherDisplay:10.37,2013-12-04 13:18:00,
2013-12-04 08:19:00,38.1,13.5,29.67,SE,135,0.0,0.0,36,0.00,CLR,,0.00,WeatherDisplay:10.37,2013-12-04 13:19:00,
2013-12-04 08:20:00,38.1,13.5,29.67,SE,135,0.0,0.0,36,0.00,CLR,,0.00,WeatherDisplay:10.37,2013-12-04 13:20:00,
2013-12-04 08:21:00,38.1,14.1,29.59,SE,135,0.0,0.0,37,0.00,CLR,,0.00,WeatherDisplay:10.37,2013-12-04 13:21:00,
2013-12-04 08:22:00,38.3,14.3,29.59,SE,135,0.0,0.0,37,0.00,CLR,,0.00,WeatherDisplay:10.37,2013-12-04 13:22:00,
2013-12-04 08:23:00,38.3,14.3,29.58,SSE,157,0.0,0.0,37,0.00,CLR,,0.00,WeatherDisplay:10.37,2013-12-04 13:23:00,
2013-12-04 08:26:00,38.3,14.3,29.68,SSE,157,0.0,0.0,37,0.00,CLR,,0.00,WeatherDisplay:10.37,2013-12-04 13:26:00,
2013-12-04 08:27:00,38.3,14.9,29.68,SSE,157,0.0,0.0,38,0.00,CLR,,0.00,WeatherDisplay:10.37,2013-12-04 13:27:00,
2013-12-04 08:28:00,38.3,14.9,29.64,SSE,157,0.0,0.0,38,0.00,CLR,,0.00,WeatherDisplay:10.37,2013-12-04 13:28:00,
2013-12-04 08:29:00,38.3,14.9,29.64,SSE,157,0.0,0.0,38,0.00,CLR,,0.00,WeatherDisplay:10.37,2013-12-04 13:29:00,
2013-12-04 08:31:00,38.3,14.9,29.64,SSE,157,0.0,0.0,38,0.00,CLR,,0.00,WeatherDisplay:10.37,2013-12-04 13:31:00,
2013-12-04 08:32:00,38.3,14.9,29.62,SSE,157,0.0,0.0,38,0.00,CLR,,0.00,WeatherDisplay:10.37,2013-12-04 13:32:00,
2013-12-04 08:33:00,38.3,14.9,29.62,SSE,157,0.0,0.0,38,0.00,CLR,,0.00,WeatherDisplay:10.37,2013-12-04 13:33:00,
2013-12-04 08:36:00,38.5,14.4,29.63,SSE,157,0.0,0.0,37,0.00,CLR,,0.00,WeatherDisplay:10.37,2013-12-04 13:36:00,
2013-12-04 08:37:00,38.5,14.4,29.63,SSE,157,0.0,0.0,37,0.00,CLR,,0.00,WeatherDisplay:10.37,2013-12-04 13:37:00,
2013-12-04 08:38:00,38.5,15.0,29.60,SSE,157,0.0,0.0,38,0.00,CLR,,0.00,WeatherDisplay:10.37,2013-12-04 13:38:00,
2013-12-04 08:40:00,38.5,14.4,29.59,SE,135,0.0,0.0,37,0.00,CLR,,0.00,WeatherDisplay:10.37,2013-12-04 13:40:00,
2013-12-04 08:41:00,38.5,14.4,29.59,SE,135,0.0,0.0,37,0.00,CLR,,0.00,WeatherDisplay:10.37,2013-12-04 13:41:00,
2013-12-04 08:42:00,38.5,14.4,29.64,East,90,0.0,0.0,37,0.00,CLR,,0.00,WeatherDisplay:10.37,2013-12-04 13:42:00,
2013-12-04 08:43:00,38.5,14.4,29.64,East,90,0.0,0.0,37,0.00,CLR,,0.00,WeatherDisplay:10.37,2013-12-04 13:43:00,
2013-12-04 08:46:00,38.7,14.6,29.64,East,90,0.0,0.0,37,0.00,CLR,,0.00,WeatherDisplay:10.37,2013-12-04 13:46:00,
2013-12-04 08:48:00,38.7,14.6,29.60,East,90,0.0,0.0,37,0.00,CLR,,0.00,WeatherDisplay:10.37,2013-12-04 13:48:00,
2013-12-04 08:49:00,38.7,14.6,29.64,East,90,0.0,0.0,37,0.00,CLR,,0.00,WeatherDisplay:10.37,2013-12-04 13:49:00,
2013-12-04 08:50:00,38.7,14.6,29.64,East,90,0.0,0.0,37,0.00,CLR,,0.00,WeatherDisplay:10.37,2013-12-04 13:50:00,
2013-12-04 08:51:00,38.7,14.6,29.64,East,90,0.0,0.0,37,0.00,CLR,,0.00,WeatherDisplay:10.37,2013-12-04 13:51:00,
2013-12-04 08:54:00,38.8,14.7,29.60,East,90,0.0,0.0,37,0.00,CLR,,0.00,WeatherDisplay:10.37,2013-12-04 13:54:00,
2013-12-04 08:55:00,39.0,14.9,29.61,East,90,0.0,0.0,37,0.00,CLR,,0.00,WeatherDisplay:10.37,2013-12-04 13:55:00,
2013-12-04 08:56:00,39.0,14.9,29.61,East,90,0.0,0.0,37,0.00,CLR,,0.00,WeatherDisplay:10.37,2013-12-04 13:56:00,
2013-12-04 08:57:00,39.0,14.9,29.64,East,90,0.0,0.0,37,0.00,CLR,,0.00,WeatherDisplay:10.37,2013-12-04 13:57:00,
2013-12-04 08:59:00,39.2,15.7,29.64,East,90,0.0,0.0,38,0.00,CLR,,0.00,WeatherDisplay:10.37,2013-12-04 13:59:00,
2013-12-04 09:01:00,39.4,15.8,29.59,East,90,0.0,0.0,38,0.00,CLR,,0.00,WeatherDisplay:10.37,2013-12-04 14:01:00,
2013-12-04 09:02:00,39.4,15.8,29.59,East,90,0.0,0.0,38,0.00,CLR,,0.00,WeatherDisplay:10.37,2013-12-04 14:02:00,
2013-12-04 09:03:00,39.4,15.8,29.68,East,90,0.0,0.0,38,0.00,CLR,,0.00,WeatherDisplay:10.37,2013-12-04 14:03:00,
2013-12-04 09:04:00,39.4,15.8,29.68,East,90,0.0,0.0,38,0.00,CLR,,0.00,WeatherDisplay:10.37,2013-12-04 14:04:00,
2013-12-04 09:06:00,39.6,16.0,29.67,East,90,0.0,0.0,38,0.00,CLR,,0.00,WeatherDisplay:10.37,2013-12-04 14:06:00,
2013-12-04 09:08:00,39.6,16.0,29.67,East,90,0.0,0.0,38,0.00,CLR,,0.00,WeatherDisplay:10.37,2013-12-04 14:08:00,
2013-12-04 09:09:00,39.6,16.0,29.65,East,90,0.0,0.0,38,0.00,CLR,,0.00,WeatherDisplay:10.37,2013-12-04 14:09:00,
2013-12-04 09:10:00,39.9,16.3,29.65,East,90,0.0,0.0,38,0.00,CLR,,0.00,WeatherDisplay:10.37,2013-12-04 14:10:00,
2013-12-04 09:13:00,40.1,16.5,29.65,East,90,0.0,0.0,38,0.00,CLR,,0.00,WeatherDisplay:10.37,2013-12-04 14:13:00,
2013-12-04 09:14:00,40.1,16.5,29.65,East,90,0.0,0.0,38,0.00,CLR,,0.00,WeatherDisplay:10.37,2013-12-04 14:14:00,
2013-12-04 09:15:00,40.3,16.7,29.61,East,90,0.0,0.0,38,0.00,CLR,,0.00,WeatherDisplay:10.37,2013-12-04 14:15:00,
2013-12-04 09:16:00,40.3,16.7,29.61,East,90,0.0,0.0,38,0.00,CLR,,0.00,WeatherDisplay:10.37,2013-12-04 14:16:00,
2013-12-04 09:18:00,40.5,16.2,29.65,East,90,0.0,0.0,37,0.00,CLR,,0.00,WeatherDisplay:10.37,2013-12-04 14:18:00,
2013-12-04 09:20:00,40.5,16.2,29.65,East,90,0.0,0.0,37,0.00,CLR,,0.00,WeatherDisplay:10.37,2013-12-04 14:20:00,
2013-12-04 09:21:00,40.6,16.4,29.61,East,90,0.0,0.0,37,0.00,CLR,,0.00,WeatherDisplay:10.37,2013-12-04 14:21:00,
2013-12-04 09:23:00,40.8,16.5,29.61,East,90,0.0,0.0,37,0.00,CLR,,0.00,WeatherDisplay:10.37,2013-12-04 14:23:00,
2013-12-04 09:25:00,40.8,16.5,29.62,East,90,0.0,0.0,37,0.00,CLR,,0.00,WeatherDisplay:10.37,2013-12-04 14:25:00,
2013-12-04 09:26:00,40.8,17.1,29.62,ESE,112,0.0,0.0,38,0.00,CLR,,0.00,WeatherDisplay:10.37,2013-12-04 14:26:00,
2013-12-04 09:30:00,41.2,17.5,29.57,East,90,0.0,0.0,38,0.00,CLR,,0.00,WeatherDisplay:10.37,2013-12-04 14:30:00,
2013-12-04 09:31:00,41.2,17.5,29.57,East,90,0.0,0.0,38,0.00,CLR,,0.00,WeatherDisplay:10.37,2013-12-04 14:31:00,
2013-12-04 09:32:00,41.2,17.5,29.61,East,90,0.0,0.0,38,0.00,CLR,,0.00,WeatherDisplay:10.37,2013-12-04 14:32:00,
2013-12-04 09:35:00,41.4,17.6,29.57,East,90,0.0,0.0,38,0.00,CLR,,0.00,WeatherDisplay:10.37,2013-12-04 14:35:00,
2013-12-04 09:36:00,41.4,17.6,29.57,East,90,0.0,0.0,38,0.00,CLR,,0.00,WeatherDisplay:10.37,2013-12-04 14:36:00,
2013-12-04 09:37:00,41.5,17.8,29.57,East,90,0.0,0.0,38,0.00,CLR,,0.00,WeatherDisplay:10.37,2013-12-04 14:37:00,
2013-12-04 09:38:00,41.5,17.8,29.57,East,90,0.0,0.0,38,0.00,CLR,,0.00,WeatherDisplay:10.37,2013-12-04 14:38:00,
2013-12-04 09:40:00,41.7,17.9,29.57,East,90,0.0,0.0,38,0.00,CLR,,0.00,WeatherDisplay:10.37,2013-12-04 14:40:00,
2013-12-04 09:41:00,41.7,17.9,29.67,East,90,0.0,0.0,38,0.00,CLR,,0.00,WeatherDisplay:10.37,2013-12-04 14:41:00,
2013-12-04 09:42:00,41.7,17.9,29.67,East,90,0.0,0.0,38,0.00,CLR,,0.00,WeatherDisplay:10.37,2013-12-04 14:42:00,
2013-12-04 09:43:00,41.7,17.9,29.67,East,90,0.0,0.0,38,0.00,CLR,,0.00,WeatherDisplay:10.37,2013-12-04 14:43:00,
2013-12-04 09:45:00,41.9,18.7,29.60,ENE,67,0.0,0.0,39,0.00,CLR,,0.00,WeatherDisplay:10.37,2013-12-04 14:45:00,
2013-12-04 09:48:00,42.1,18.9,29.64,ENE,67,0.0,0.0,39,0.00,CLR,,0.00,WeatherDisplay:10.37,2013-12-04 14:48:00,
2013-12-04 09:50:00,42.3,19.0,29.67,ENE,67,0.0,0.0,39,0.00,CLR,,0.00,WeatherDisplay:10.37,2013-12-04 14:50:00,
2013-12-04 09:51:00,42.3,19.0,29.67,ENE,67,0.0,0.0,39,0.00,CLR,,0.00,WeatherDisplay:10.37,2013-12-04 14:51:00,
2013-12-04 09:52:00,42.3,18.4,29.61,ENE,67,0.0,0.0,38,0.00,CLR,,0.00,WeatherDisplay:10.37,2013-12-04 14:52:00,
2013-12-04 09:55:00,42.4,18.6,29.61,ENE,67,0.0,0.0,38,0.00,CLR,,0.00,WeatherDisplay:10.37,2013-12-04 14:55:00,
2013-12-04 09:56:00,42.4,18.6,29.59,NNE,22,0.0,0.0,38,0.00,CLR,,0.00,WeatherDisplay:10.37,2013-12-04 14:56:00,
2013-12-04 09:57:00,42.4,18.6,29.59,NNE,22,0.0,0.0,38,0.00,CLR,,0.00,WeatherDisplay:10.37,2013-12-04 14:57:00,
2013-12-04 09:58:00,42.4,18.6,29.59,NNE,22,0.0,0.0,38,0.00,CLR,,0.00,WeatherDisplay:10.37,2013-12-04 14:58:00,
2013-12-04 10:00:00,42.6,18.8,29.59,NE,45,0.0,0.0,38,0.00,CLR,,0.00,WeatherDisplay:10.37,2013-12-04 15:00:00,
2013-12-04 10:01:00,42.6,18.8,29.59,NE,45,0.0,0.0,38,0.00,CLR,,0.00,WeatherDisplay:10.37,2013-12-04 15:01:00,
2013-12-04 10:03:00,42.8,18.9,29.64,NE,45,0.0,0.0,38,0.00,CLR,,0.00,WeatherDisplay:10.37,2013-12-04 15:03:00,
2013-12-04 10:04:00,42.8,18.9,29.64,NE,45,0.0,0.0,38,0.00,CLR,,0.00,WeatherDisplay:10.37,2013-12-04 15:04:00,
2013-12-04 10:06:00,42.8,18.9,29.64,ENE,67,0.0,0.0,38,0.00,CLR,,0.00,WeatherDisplay:10.37,2013-12-04 15:06:00,
2013-12-04 10:07:00,43.0,19.1,29.65,ENE,67,0.0,0.0,38,0.00,CLR,,0.00,WeatherDisplay:10.37,2013-12-04 15:07:00,
2013-12-04 10:08:00,43.2,19.2,29.65,ENE,67,0.0,0.0,38,0.00,CLR,,0.00,WeatherDisplay:10.37,2013-12-04 15:08:00,
2013-12-04 10:09:00,43.2,19.2,29.65,ENE,67,0.0,0.0,38,0.00,CLR,,0.00,WeatherDisplay:10.37,2013-12-04 15:09:00,
2013-12-04 10:11:00,43.3,20.0,29.55,ENE,67,0.0,0.0,39,0.00,CLR,,0.00,WeatherDisplay:10.37,2013-12-04 15:11:00,
2013-12-04 10:12:00,43.3,19.4,29.54,ENE,67,0.0,0.0,38,0.00,CLR,,0.00,WeatherDisplay:10.37,2013-12-04 15:12:00,
2013-12-04 10:13:00,43.5,19.6,29.54,ENE,67,0.0,0.0,38,0.00,CLR,,0.00,WeatherDisplay:10.37,2013-12-04 15:13:00,
2013-12-04 10:14:00,43.5,19.6,29.54,ENE,67,0.0,0.0,38,0.00,CLR,,0.00,WeatherDisplay:10.37,2013-12-04 15:14:00,
2013-12-04 10:15:00,43.5,19.6,29.56,ENE,67,0.0,0.0,38,0.00,CLR,,0.00,WeatherDisplay:10.37,2013-12-04 15:15:00,
2013-12-04 10:16:00,43.7,19.7,29.56,East,90,0.0,0.0,38,0.00,CLR,,0.00,WeatherDisplay:10.37,2013-12-04 15:16:00,
2013-12-04 10:18:00,43.9,19.3,29.56,ESE,112,0.0,0.0,37,0.00,CLR,,0.00,WeatherDisplay:10.37,2013-12-04 15:18:00,
2013-12-04 10:19:00,43.9,19.3,29.56,ESE,112,0.0,0.0,37,0.00,CLR,,0.00,WeatherDisplay:10.37,2013-12-04 15:19:00,
2013-12-04 10:21:00,44.1,19.4,29.57,ESE,112,0.0,0.0,37,0.00,CLR,,0.00,WeatherDisplay:10.37,2013-12-04 15:21:00,
2013-12-04 10:22:00,44.1,19.4,29.57,ESE,112,0.0,0.0,37,0.00,CLR,,0.00,WeatherDisplay:10.37,2013-12-04 15:22:00,
2013-12-04 10:23:00,44.2,19.6,29.58,ESE,112,0.0,0.0,37,0.00,CLR,,0.00,WeatherDisplay:10.37,2013-12-04 15:23:00,
2013-12-04 10:24:00,44.2,19.6,29.58,South,180,0.0,0.0,37,0.00,CLR,,0.00,WeatherDisplay:10.37,2013-12-04 15:24:00,
2013-12-04 10:25:00,44.2,19.6,29.59,South,180,0.0,0.0,37,0.00,CLR,,0.00,WeatherDisplay:10.37,2013-12-04 15:25:00,
2013-12-04 10:26:00,44.2,18.9,29.59,South,180,0.0,0.0,36,0.00,CLR,,0.00,WeatherDisplay:10.37,2013-12-04 15:26:00,
2013-12-04 10:27:00,44.4,19.1,29.59,South,180,0.0,0.0,36,0.00,CLR,,0.00,WeatherDisplay:10.37,2013-12-04 15:27:00,
2013-12-04 10:28:00,44.4,19.7,29.59,South,180,0.0,0.0,37,0.00,CLR,,0.00,WeatherDisplay:10.37,2013-12-04 15:28:00,
2013-12-04 10:29:00,44.6,19.9,29.59,South,180,0.0,0.0,37,0.00,CLR,,0.00,WeatherDisplay:10.37,2013-12-04 15:29:00,
2013-12-04 10:31:00,44.6,19.9,29.59,South,180,0.0,0.0,37,0.00,CLR,,0.00,WeatherDisplay:10.37,2013-12-04 15:31:00,
2013-12-04 10:32:00,44.8,20.7,29.61,SSE,157,0.0,0.0,38,0.00,CLR,,0.00,WeatherDisplay:10.37,2013-12-04 15:32:00,
2013-12-04 10:33:00,44.8,20.7,29.55,SSE,157,0.0,0.0,38,0.00,CLR,,0.00,WeatherDisplay:10.37,2013-12-04 15:33:00,
2013-12-04 10:35:00,45.0,20.2,29.55,ESE,112,0.0,0.0,37,0.00,CLR,,0.00,WeatherDisplay:10.37,2013-12-04 15:35:00,
2013-12-04 10:38:00,45.1,20.4,29.64,ENE,67,0.0,0.0,37,0.00,CLR,,0.00,WeatherDisplay:10.37,2013-12-04 15:38:00,
2013-12-04 10:39:00,45.1,20.4,29.62,ENE,67,0.0,0.0,37,0.00,CLR,,0.00,WeatherDisplay:10.37,2013-12-04 15:39:00,
2013-12-04 10:40:00,45.3,20.5,29.62,ENE,67,0.0,0.0,37,0.00,CLR,,0.00,WeatherDisplay:10.37,2013-12-04 15:40:00,
2013-12-04 10:41:00,45.3,20.5,29.62,ENE,67,0.0,0.0,37,0.00,CLR,,0.00,WeatherDisplay:10.37,2013-12-04 15:41:00,
2013-12-04 10:43:00,45.5,21.3,29.58,ENE,67,0.0,0.0,38,0.00,CLR,,0.00,WeatherDisplay:10.37,2013-12-04 15:43:00,
2013-12-04 10:46:00,45.7,21.5,29.55,ENE,67,0.0,0.0,38,0.00,CLR,,0.00,WeatherDisplay:10.37,2013-12-04 15:46:00,
2013-12-04 10:48:00,45.9,21.7,29.60,ENE,67,0.0,0.0,38,0.00,CLR,,0.00,WeatherDisplay:10.37,2013-12-04 15:48:00,
2013-12-04 10:49:00,45.9,21.0,29.60,ENE,67,0.0,0.0,37,0.00,CLR,,0.00,WeatherDisplay:10.37,2013-12-04 15:49:00,
2013-12-04 10:51:00,45.9,21.0,29.56,East,90,0.0,0.0,37,0.00,CLR,,0.00,WeatherDisplay:10.37,2013-12-04 15:51:00,
2013-12-04 10:52:00,46.0,21.2,29.56,East,90,0.0,0.0,37,0.00,CLR,,0.00,WeatherDisplay:10.37,2013-12-04 15:52:00,
2013-12-04 10:53:00,46.0,21.2,29.56,East,90,0.0,0.0,37,0.00,CLR,,0.00,WeatherDisplay:10.37,2013-12-04 15:53:00,
2013-12-04 10:54:00,46.0,21.2,29.57,East,90,0.3,0.0,37,0.00,CLR,,0.00,WeatherDisplay:10.37,2013-12-04 15:54:00,
2013-12-04 10:55:00,46.2,21.3,29.57,East,90,0.3,0.3,37,0.00,CLR,,0.00,WeatherDisplay:10.37,2013-12-04 15:55:00,
2013-12-04 10:56:00,46.2,21.3,29.64,East,90,0.3,0.3,37,0.00,CLR,,0.00,WeatherDisplay:10.37,2013-12-04 15:56:00,
2013-12-04 10:57:00,46.2,22.0,29.64,NE,45,0.3,0.0,38,0.00,CLR,,0.00,WeatherDisplay:10.37,2013-12-04 15:57:00,
2013-12-04 10:58:00,46.2,22.0,29.64,NE,45,0.3,0.0,38,0.00,CLR,,0.00,WeatherDisplay:10.37,2013-12-04 15:58:00,
2013-12-04 10:59:00,46.2,22.0,29.57,NE,45,0.3,0.0,38,0.00,CLR,,0.00,WeatherDisplay:10.37,2013-12-04 15:59:00,
2013-12-04 11:02:00,46.4,22.1,29.57,ESE,112,0.3,0.0,38,0.00,CLR,,0.00,WeatherDisplay:10.37,2013-12-04 16:02:00,
2013-12-04 11:04:00,46.4,22.1,29.57,ESE,112,0.3,0.0,38,0.00,CLR,,0.00,WeatherDisplay:10.37,2013-12-04 16:04:00,
2013-12-04 11:06:00,46.6,22.9,29.62,ENE,67,0.3,0.0,39,0.00,CLR,,0.00,WeatherDisplay:10.37,2013-12-04 16:06:00,
2013-12-04 11:07:00,46.6,22.3,29.60,ENE,67,0.3,0.0,38,0.00,CLR,,0.00,WeatherDisplay:10.37,2013-12-04 16:07:00,
2013-12-04 11:08:00,46.6,22.3,29.60,ENE,67,0.3,0.0,38,0.00,CLR,,0.00,WeatherDisplay:10.37,2013-12-04 16:08:00,
2013-12-04 11:12:00,46.8,22.5,29.58,ENE,67,1.2,1.2,38,0.00,CLR,,0.00,WeatherDisplay:10.37,2013-12-04 16:12:00,
2013-12-04 11:13:00,46.8,22.5,29.58,West,270,1.2,1.2,38,0.00,CLR,,0.00,WeatherDisplay:10.37,2013-12-04 16:13:00,
2013-12-04 11:14:00,46.9,22.0,29.58,West,270,1.2,0.0,37,0.00,CLR,,0.00,WeatherDisplay:10.37,2013-12-04 16:14:00,
2013-12-04 11:18:00,46.9,22.0,29.62,North,0,1.2,0.0,37,0.00,CLR,,0.00,WeatherDisplay:10.37,2013-12-04 16:18:00,
2013-12-04 11:19:00,46.9,22.0,29.52,NNE,22,1.2,0.0,37,0.00,CLR,,0.00,WeatherDisplay:10.37,2013-12-04 16:19:00,
2013-12-04 11:20:00,47.1,22.1,29.52,NNE,22,1.2,0.0,37,0.00,CLR,,0.00,WeatherDisplay:10.37,2013-12-04 16:20:00,
2013-12-04 11:21:00,47.1,22.1,29.52,NNE,22,1.2,0.0,37,0.00,CLR,,0.00,WeatherDisplay:10.37,2013-12-04 16:21:00,
2013-12-04 11:22:00,47.1,22.8,29.55,NNE,22,1.2,0.0,38,0.00,CLR,,0.00,WeatherDisplay:10.37,2013-12-04 16:22:00,
2013-12-04 11:24:00,47.1,22.8,29.55,NNE,22,1.2,0.0,38,0.00,CLR,,0.00,WeatherDisplay:10.37,2013-12-04 16:24:00,
2013-12-04 11:25:00,47.3,22.9,29.59,East,90,0.0,0.0,38,0.00,CLR,,0.00,WeatherDisplay:10.37,2013-12-04 16:25:00,
2013-12-04 11:27:00,47.3,22.9,29.59,SE,135,0.0,0.0,38,0.00,CLR,,0.00,WeatherDisplay:10.37,2013-12-04 16:27:00,
2013-12-04 11:28:00,47.5,22.5,29.52,SE,135,0.0,0.0,37,0.00,CLR,,0.00,WeatherDisplay:10.37,2013-12-04 16:28:00,
2013-12-04 11:29:00,47.5,22.5,29.52,NE,45,0.0,0.0,37,0.00,CLR,,0.00,WeatherDisplay:10.37,2013-12-04 16:29:00,
2013-12-04 11:31:00,47.5,22.5,29.58,NE,45,0.0,0.0,37,0.00,CLR,,0.00,WeatherDisplay:10.37,2013-12-04 16:31:00,
2013-12-04 11:32:00,47.5,22.5,29.58,ENE,67,0.0,0.0,37,0.00,CLR,,0.00,WeatherDisplay:10.37,2013-12-04 16:32:00,
2013-12-04 11:33:00,47.5,22.5,29.52,ENE,67,0.0,0.0,37,0.00,CLR,,0.00,WeatherDisplay:10.37,2013-12-04 16:33:00,
2013-12-04 11:34:00,47.7,23.3,29.52,NE,45,0.0,0.0,38,0.00,CLR,,0.00,WeatherDisplay:10.37,2013-12-04 16:34:00,
2013-12-04 11:35:00,47.7,23.3,29.52,NE,45,0.0,0.0,38,0.00,CLR,,0.00,WeatherDisplay:10.37,2013-12-04 16:35:00,
2013-12-04 11:37:00,47.7,23.3,29.52,ESE,112,0.0,0.0,38,0.00,CLR,,0.00,WeatherDisplay:10.37,2013-12-04 16:37:00,
2013-12-04 11:39:00,47.7,23.3,29.52,ESE,112,1.2,0.0,38,0.00,CLR,,0.00,WeatherDisplay:10.37,2013-12-04 16:39:00,
2013-12-04 11:40:00,47.8,24.0,29.52,ESE,112,1.2,1.2,39,0.00,CLR,,0.00,WeatherDisplay:10.37,2013-12-04 16:40:00,
2013-12-04 11:42:00,47.8,24.0,29.52,ESE,112,1.2,1.2,39,0.00,CLR,,0.00,WeatherDisplay:10.37,2013-12-04 16:42:00,
2013-12-04 11:43:00,47.8,23.4,29.60,ESE,112,1.2,0.0,38,0.00,CLR,,0.00,WeatherDisplay:10.37,2013-12-04 16:43:00,
2013-12-04 11:44:00,48.0,23.6,29.60,West,270,1.2,0.0,38,0.00,CLR,,0.00,WeatherDisplay:10.37,2013-12-04 16:44:00,
2013-12-04 11:45:00,48.0,23.6,29.59,West,270,1.2,0.0,38,0.00,CLR,,0.00,WeatherDisplay:10.37,2013-12-04 16:45:00,
2013-12-04 11:47:00,48.0,23.6,29.59,East,90,1.2,1.2,38,0.00,CLR,,0.00,WeatherDisplay:10.37,2013-12-04 16:47:00,
2013-12-04 11:49:00,48.2,23.7,29.58,East,90,1.2,1.2,38,0.00,CLR,,0.00,WeatherDisplay:10.37,2013-12-04 16:49:00,
2013-12-04 11:50:00,48.4,23.9,29.58,East,90,1.2,0.0,38,0.00,CLR,,0.00,WeatherDisplay:10.37,2013-12-04 16:50:00,
2013-12-04 11:51:00,48.4,23.9,29.52,East,90,1.2,0.0,38,0.00,CLR,,0.00,WeatherDisplay:10.37,2013-12-04 16:51:00,
2013-12-04 11:52:00,48.4,24.5,29.52,East,90,1.2,0.0,39,0.00,CLR,,0.00,WeatherDisplay:10.37,2013-12-04 16:52:00,
2013-12-04 11:54:00,48.4,24.5,29.63,NE,45,1.2,0.0,39,0.00,CLR,,0.00,WeatherDisplay:10.37,2013-12-04 16:54:00,
2013-12-04 11:55:00,48.6,24.7,29.63,NE,45,1.2,1.2,39,0.00,CLR,,0.00,WeatherDisplay:10.37,2013-12-04 16:55:00,
2013-12-04 11:56:00,48.7,24.9,29.63,ENE,67,1.2,1.2,39,0.00,CLR,,0.00,WeatherDisplay:10.37,2013-12-04 16:56:00,
2013-12-04 11:57:00,48.7,24.9,29.51,NE,45,1.2,1.2,39,0.00,CLR,,0.00,WeatherDisplay:10.37,2013-12-04 16:57:00,
2013-12-04 11:59:00,48.7,24.9,29.51,NE,45,1.2,1.2,39,0.00,CLR,,0.00,WeatherDisplay:10.37,2013-12-04 16:59:00,
2013-12-04 12:00:00,48.7,24.2,29.55,NE,45,1.2,1.2,38,0.00,CLR,,0.00,WeatherDisplay:10.37,2013-12-04 17:00:00,
2013-12-04 12:01:00,48.7,24.9,29.52,NE,45,1.2,1.2,39,0.00,CLR,,0.00,WeatherDisplay:10.37,2013-12-04 17:01:00,
2013-12-04 12:02:00,48.9,25.0,29.52,NNW,337,1.2,0.0,39,0.00,CLR,,0.00,WeatherDisplay:10.37,2013-12-04 17:02:00,
2013-12-04 12:05:00,49.1,25.2,29.53,ENE,67,1.2,1.2,39,0.00,CLR,,0.00,WeatherDisplay:10.37,2013-12-04 17:05:00,
2013-12-04 12:06:00,49.1,25.2,29.54,NE,45,2.3,2.3,39,0.00,CLR,,0.00,WeatherDisplay:10.37,2013-12-04 17:06:00,
2013-12-04 12:07:00,49.1,25.2,29.52,NE,45,2.3,2.3,39,0.00,CLR,,0.00,WeatherDisplay:10.37,2013-12-04 17:07:00,
2013-12-04 12:08:00,49.3,25.3,29.52,ESE,112,2.3,2.3,39,0.00,CLR,,0.00,WeatherDisplay:10.37,2013-12-04 17:08:00,
2013-12-04 12:10:00,49.3,25.3,29.52,NE,45,2.3,2.3,39,0.00,CLR,,0.00,WeatherDisplay:10.37,2013-12-04 17:10:00,
2013-12-04 12:11:00,49.5,25.5,29.52,NE,45,2.3,2.3,39,0.00,CLR,,0.00,WeatherDisplay:10.37,2013-12-04 17:11:00,
2013-12-04 12:13:00,49.5,25.5,29.53,East,90,2.3,2.3,39,0.00,CLR,,0.00,WeatherDisplay:10.37,2013-12-04 17:13:00,
2013-12-04 12:15:00,49.5,25.5,29.52,East,90,2.3,0.0,39,0.00,CLR,,0.00,WeatherDisplay:10.37,2013-12-04 17:15:00,
2013-12-04 12:16:00,49.6,25.7,29.52,ESE,112,2.3,2.3,39,0.00,CLR,,0.00,WeatherDisplay:10.37,2013-12-04 17:16:00,
2013-12-04 12:17:00,49.8,25.8,29.52,ESE,112,2.3,2.3,39,0.00,CLR,,0.00,WeatherDisplay:10.37,2013-12-04 17:17:00,
2013-12-04 12:18:00,49.8,25.8,29.52,ENE,67,2.3,2.3,39,0.00,CLR,,0.00,WeatherDisplay:10.37,2013-12-04 17:18:00,
2013-12-04 12:20:00,49.8,25.8,29.52,ESE,112,2.3,2.3,39,0.00,CLR,,0.00,WeatherDisplay:10.37,2013-12-04 17:20:00,
2013-12-04 12:21:00,49.8,25.8,29.52,ESE,112,2.3,2.3,39,0.00,CLR,,0.00,WeatherDisplay:10.37,2013-12-04 17:21:00,
2013-12-04 12:22:00,50.0,26.6,29.56,ESE,112,2.3,0.0,40,0.00,CLR,,0.00,WeatherDisplay:10.37,2013-12-04 17:22:00,
2013-12-04 12:23:00,50.2,26.8,29.56,ENE,67,2.3,0.0,40,0.00,CLR,,0.00,WeatherDisplay:10.37,2013-12-04 17:23:00,
2013-12-04 12:25:00,50.4,26.3,29.52,SW,225,0.0,0.0,39,0.00,CLR,,0.00,WeatherDisplay:10.37,2013-12-04 17:25:00,
2013-12-04 12:26:00,50.4,26.3,29.52,SW,225,0.0,0.0,39,0.00,CLR,,0.00,WeatherDisplay:10.37,2013-12-04 17:26:00,
2013-12-04 12:27:00,50.4,26.3,29.52,ENE,67,0.0,0.0,39,0.00,CLR,,0.00,WeatherDisplay:10.37,2013-12-04 17:27:00,
2013-12-04 12:28:00,50.4,26.9,29.52,ENE,67,0.0,0.0,40,0.00,CLR,,0.00,WeatherDisplay:10.37,2013-12-04 17:28:00,
2013-12-04 12:29:00,50.5,27.1,29.52,ESE,112,0.0,0.0,40,0.00,CLR,,0.00,WeatherDisplay:10.37,2013-12-04 17:29:00,
2013-12-04 12:31:00,50.5,27.7,29.56,ESE,112,0.0,0.0,41,0.00,CLR,,0.00,WeatherDisplay:10.37,2013-12-04 17:31:00,
2013-12-04 12:32:00,50.7,27.8,29.54,NE,45,0.0,0.0,41,0.00,CLR,,0.00,WeatherDisplay:10.37,2013-12-04 17:32:00,
2013-12-04 12:33:00,50.7,27.8,29.52,ENE,67,0.0,0.0,41,0.00,CLR,,0.00,WeatherDisplay:10.37,2013-12-04 17:33:00,
2013-12-04 12:35:00,50.9,28.0,29.52,WSW,247,0.0,0.0,41,0.00,CLR,,0.00,WeatherDisplay:10.37,2013-12-04 17:35:00,
2013-12-04 12:36:00,50.9,26.8,29.52,WSW,247,0.0,0.0,39,0.00,CLR,,0.00,WeatherDisplay:10.37,2013-12-04 17:36:00,
2013-12-04 12:37:00,51.1,27.0,29.52,East,90,0.0,0.0,39,0.00,CLR,,0.00,WeatherDisplay:10.37,2013-12-04 17:37:00,
2013-12-04 12:38:00,51.1,27.0,29.52,East,90,0.0,0.0,39,0.00,CLR,,0.00,WeatherDisplay:10.37,2013-12-04 17:38:00,
2013-12-04 12:39:00,51.1,27.6,29.53,East,90,0.3,0.0,40,0.00,CLR,,0.00,WeatherDisplay:10.37,2013-12-04 17:39:00,
2013-12-04 12:41:00,51.3,27.1,29.52,ESE,112,0.3,0.3,39,0.00,CLR,,0.00,WeatherDisplay:10.37,2013-12-04 17:41:00,
2013-12-04 12:43:00,51.3,27.1,29.52,SE,135,0.3,0.0,39,0.00,CLR,,0.00,WeatherDisplay:10.37,2013-12-04 17:43:00,
2013-12-04 12:44:00,51.3,27.7,29.52,SE,135,0.3,0.0,40,0.00,CLR,,0.00,WeatherDisplay:10.37,2013-12-04 17:44:00,
2013-12-04 12:45:00,51.3,27.7,29.52,SE,135,0.7,0.0,40,0.00,CLR,,0.00,WeatherDisplay:10.37,2013-12-04 17:45:00,
2013-12-04 12:47:00,51.3,27.7,29.52,NE,45,1.2,1.2,40,0.00,CLR,,0.00,WeatherDisplay:10.37,2013-12-04 17:47:00,
2013-12-04 12:49:00,51.3,27.7,29.52,ENE,67,1.2,1.2,40,0.00,CLR,,0.00,WeatherDisplay:10.37,2013-12-04 17:49:00,
2013-12-04 12:50:00,51.3,28.3,29.51,ENE,67,1.2,1.2,41,0.00,CLR,,0.00,WeatherDisplay:10.37,2013-12-04 17:50:00,
2013-12-04 12:51:00,51.3,28.3,29.51,ENE,67,1.3,1.3,41,0.00,CLR,,0.00,WeatherDisplay:10.37,2013-12-04 17:51:00,
2013-12-04 12:52:00,51.4,28.5,29.52,NNW,337,1.3,1.3,41,0.00,CLR,,0.00,WeatherDisplay:10.37,2013-12-04 17:52:00,
2013-12-04 12:54:00,51.4,28.5,29.52,ESE,112,1.3,1.3,41,0.00,CLR,,0.00,WeatherDisplay:10.37,2013-12-04 17:54:00,
2013-12-04 12:55:00,51.4,28.5,29.52,ESE,112,1.3,2.0,41,0.00,CLR,,0.00,WeatherDisplay:10.37,2013-12-04 17:55:00,
2013-12-04 12:56:00,51.4,28.5,29.52,ESE,112,2.0,2.0,41,0.00,CLR,,0.00,WeatherDisplay:10.37,2013-12-04 17:56:00,
2013-12-04 12:57:00,51.4,28.5,29.51,ENE,67,2.3,2.3,41,0.00,CLR,,0.00,WeatherDisplay:10.37,2013-12-04 17:57:00,
2013-12-04 12:58:00,51.4,28.5,29.51,ENE,67,2.3,2.3,41,0.00,CLR,,0.00,WeatherDisplay:10.37,2013-12-04 17:58:00,
2013-12-04 13:01:00,51.4,27.9,29.52,ENE,67,2.3,0.0,40,0.00,CLR,,0.00,WeatherDisplay:10.37,2013-12-04 18:01:00,
2013-12-04 13:03:00,51.4,27.3,29.54,NNE,22,2.3,2.3,39,0.00,CLR,,0.00,WeatherDisplay:10.37,2013-12-04 18:03:00,
2013-12-04 13:04:00,51.4,27.3,29.54,NNE,22,2.3,2.3,39,0.00,CLR,,0.00,WeatherDisplay:10.37,2013-12-04 18:04:00,
2013-12-04 13:05:00,51.6,27.4,29.54,SW,225,2.3,2.3,39,0.00,CLR,,0.00,WeatherDisplay:10.37,2013-12-04 18:05:00,
2013-12-04 13:06:00,51.6,27.4,29.54,SW,225,2.3,2.3,39,0.00,CLR,,0.00,WeatherDisplay:10.37,2013-12-04 18:06:00,
2013-12-04 13:08:00,51.6,27.4,29.52,ENE,67,2.3,0.0,39,0.00,CLR,,0.00,WeatherDisplay:10.37,2013-12-04 18:08:00,
2013-12-04 13:11:00,51.6,28.1,29.52,ESE,112,2.3,0.0,40,0.00,CLR,,0.00,WeatherDisplay:10.37,2013-12-04 18:11:00,
2013-12-04 13:12:00,51.8,28.2,29.52,NNE,22,2.3,2.3,40,0.00,CLR,,0.00,WeatherDisplay:10.37,2013-12-04 18:12:00,
2013-12-04 13:13:00,51.8,28.2,29.52,WSW,247,2.3,2.3,40,0.00,CLR,,0.00,WeatherDisplay:10.37,2013-12-04 18:13:00,
2013-12-04 13:16:00,51.8,27.6,29.56,ESE,112,2.3,2.3,39,0.00,CLR,,0.00,WeatherDisplay:10.37,2013-12-04 18:16:00,
2013-12-04 13:17:00,51.8,27.6,29.56,ESE,112,2.3,2.3,39,0.00,CLR,,0.00,WeatherDisplay:10.37,2013-12-04 18:17:00,
2013-12-04 13:19:00,51.8,27.6,29.52,ESE,112,2.3,2.3,39,0.00,CLR,,0.00,WeatherDisplay:10.37,2013-12-04 18:19:00,
2013-12-04 13:20:00,52.0,27.8,29.52,NE,45,2.3,0.0,39,0.00,CLR,,0.00,WeatherDisplay:10.37,2013-12-04 18:20:00,
2013-12-04 13:22:00,52.0,27.8,29.55,NE,45,2.3,2.3,39,0.00,CLR,,0.00,WeatherDisplay:10.37,2013-12-04 18:22:00,
2013-12-04 13:23:00,52.0,27.8,29.55,East,90,0.3,0.3,39,0.00,CLR,,0.00,WeatherDisplay:10.37,2013-12-04 18:23:00,
2013-12-04 13:24:00,52.0,27.8,29.55,East,90,0.3,0.3,39,0.00,CLR,,0.00,WeatherDisplay:10.37,2013-12-04 18:24:00,
2013-12-04 13:26:00,52.0,27.8,29.52,ENE,67,0.3,0.0,39,0.00,CLR,,0.00,WeatherDisplay:10.37,2013-12-04 18:26:00,
2013-12-04 13:27:00,52.0,27.8,29.52,ENE,67,0.3,0.0,39,0.00,CLR,,0.00,WeatherDisplay:10.37,2013-12-04 18:27:00,
2013-12-04 13:28:00,52.2,27.9,29.52,ENE,67,0.3,0.3,39,0.00,CLR,,0.00,WeatherDisplay:10.37,2013-12-04 18:28:00,
2013-12-04 13:29:00,52.2,27.9,29.52,ENE,67,0.3,0.3,39,0.00,CLR,,0.00,WeatherDisplay:10.37,2013-12-04 18:29:00,
2013-12-04 13:30:00,52.2,27.9,29.52,ENE,67,0.3,0.3,39,0.00,CLR,,0.00,WeatherDisplay:10.37,2013-12-04 18:30:00,
2013-12-04 13:31:00,52.2,27.9,29.46,ESE,112,0.3,0.0,39,0.00,CLR,,0.00,WeatherDisplay:10.37,2013-12-04 18:31:00,
2013-12-04 13:32:00,52.2,27.9,29.56,NE,45,0.3,0.0,39,0.00,CLR,,0.00,WeatherDisplay:10.37,2013-12-04 18:32:00,
2013-12-04 13:34:00,52.2,27.9,29.52,ESE,112,0.3,0.3,39,0.00,CLR,,0.00,WeatherDisplay:10.37,2013-12-04 18:34:00,
2013-12-04 13:35:00,52.2,27.9,29.52,ESE,112,0.3,0.3,39,0.00,CLR,,0.00,WeatherDisplay:10.37,2013-12-04 18:35:00,
2013-12-04 13:37:00,52.3,28.1,29.46,SW,225,0.3,0.3,39,0.00,CLR,,0.00,WeatherDisplay:10.37,2013-12-04 18:37:00,
2013-12-04 13:39:00,52.3,28.7,29.53,ENE,67,0.3,0.0,40,0.00,CLR,,0.00,WeatherDisplay:10.37,2013-12-04 18:39:00,
2013-12-04 13:40:00,52.3,28.7,29.53,ENE,67,0.3,1.0,40,0.00,CLR,,0.00,WeatherDisplay:10.37,2013-12-04 18:40:00,
2013-12-04 13:41:00,52.3,28.1,29.50,SE,135,1.2,1.2,39,0.00,CLR,,0.00,WeatherDisplay:10.37,2013-12-04 18:41:00,
2013-12-04 13:43:00,52.3,28.1,29.50,SE,135,1.2,1.2,39,0.00,CLR,,0.00,WeatherDisplay:10.37,2013-12-04 18:43:00,
2013-12-04 13:44:00,52.3,28.7,29.50,SE,135,1.2,1.2,40,0.00,CLR,,0.00,WeatherDisplay:10.37,2013-12-04 18:44:00,
2013-12-04 13:45:00,52.3,28.7,29.50,ENE,67,1.2,1.2,40,0.00,CLR,,0.00,WeatherDisplay:10.37,2013-12-04 18:45:00,
2013-12-04 13:46:00,52.3,28.7,29.50,ENE,67,1.2,1.2,40,0.00,CLR,,0.00,WeatherDisplay:10.37,2013-12-04 18:46:00,
2013-12-04 13:47:00,52.5,28.9,29.48,ENE,67,1.2,0.0,40,0.00,CLR,,0.00,WeatherDisplay:10.37,2013-12-04 18:47:00,
2013-12-04 13:48:00,52.5,28.9,29.48,NE,45,1.2,2.0,40,0.00,CLR,,0.00,WeatherDisplay:10.37,2013-12-04 18:48:00,
2013-12-04 13:50:00,52.5,28.2,29.52,East,90,2.3,2.3,39,0.00,CLR,,0.00,WeatherDisplay:10.37,2013-12-04 18:50:00,
2013-12-04 13:51:00,52.3,28.1,29.52,East,90,2.3,2.3,39,0.00,CLR,,0.00,WeatherDisplay:10.37,2013-12-04 18:51:00,
2013-12-04 13:52:00,52.3,28.1,29.52,NE,45,2.3,2.3,39,0.00,CLR,,0.00,WeatherDisplay:10.37,2013-12-04 18:52:00,
2013-12-04 13:53:00,52.3,28.1,29.55,NE,45,2.3,2.3,39,0.00,CLR,,0.00,WeatherDisplay:10.37,2013-12-04 18:53:00,
2013-12-04 13:55:00,52.3,27.5,29.49,North,0,2.3,0.0,38,0.00,CLR,,0.00,WeatherDisplay:10.37,2013-12-04 18:55:00,
2013-12-04 13:56:00,52.3,27.5,29.49,North,0,2.3,2.3,38,0.00,CLR,,0.00,WeatherDisplay:10.37,2013-12-04 18:56:00,
2013-12-04 13:57:00,52.3,27.5,29.48,North,0,2.3,2.3,38,0.00,CLR,,0.00,WeatherDisplay:10.37,2013-12-04 18:57:00,
2013-12-04 13:59:00,52.3,27.5,29.48,ESE,112,2.3,0.0,38,0.00,CLR,,0.00,WeatherDisplay:10.37,2013-12-04 18:59:00,
2013-12-04 14:00:00,52.3,26.8,29.57,ESE,112,2.3,0.0,37,0.00,CLR,,0.00,WeatherDisplay:10.37,2013-12-04 19:00:00,
2013-12-04 14:01:00,52.3,26.8,29.57,South,180,2.3,0.0,37,0.00,CLR,,0.00,WeatherDisplay:10.37,2013-12-04 19:01:00,
2013-12-04 14:02:00,52.3,26.8,29.57,South,180,2.3,2.3,37,0.00,CLR,,0.00,WeatherDisplay:10.37,2013-12-04 19:02:00,
2013-12-04 14:04:00,52.3,26.8,29.50,East,90,2.3,2.3,37,0.00,CLR,,0.00,WeatherDisplay:10.37,2013-12-04 19:04:00,
2013-12-04 14:05:00,52.3,26.8,29.50,SE,135,2.3,2.3,37,0.00,CLR,,0.00,WeatherDisplay:10.37,2013-12-04 19:05:00,
2013-12-04 14:06:00,52.3,26.8,29.50,SE,135,2.3,2.3,37,0.00,CLR,,0.00,WeatherDisplay:10.37,2013-12-04 19:06:00,
2013-12-04 14:07:00,52.3,26.8,29.54,NE,45,2.3,0.0,37,0.00,CLR,,0.00,WeatherDisplay:10.37,2013-12-04 19:07:00,
2013-12-04 14:08:00,52.3,26.8,29.54,NE,45,2.3,0.0,37,0.00,CLR,,0.00,WeatherDisplay:10.37,2013-12-04 19:08:00,
2013-12-04 14:10:00,52.5,27.0,29.49,NNE,22,2.3,0.0,37,0.00,CLR,,0.00,WeatherDisplay:10.37,2013-12-04 19:10:00,
2013-12-04 14:11:00,52.3,26.8,29.49,NNE,22,2.3,0.0,37,0.00,CLR,,0.00,WeatherDisplay:10.37,2013-12-04 19:11:00,
2013-12-04 14:12:00,52.3,26.8,29.49,NNE,22,2.3,0.0,37,0.00,CLR,,0.00,WeatherDisplay:10.37,2013-12-04 19:12:00,
2013-12-04 14:13:00,52.3,26.8,29.49,ESE,112,2.3,2.3,37,0.00,CLR,,0.00,WeatherDisplay:10.37,2013-12-04 19:13:00,
2013-12-04 14:16:00,52.3,26.8,29.51,SSE,157,2.3,0.0,37,0.00,CLR,,0.00,WeatherDisplay:10.37,2013-12-04 19:16:00,
2013-12-04 14:18:00,52.3,26.1,29.49,ENE,67,2.3,2.3,36,0.00,CLR,,0.00,WeatherDisplay:10.37,2013-12-04 19:18:00,
2013-12-04 14:19:00,52.3,26.1,29.49,NNW,337,2.3,0.0,36,0.00,CLR,,0.00,WeatherDisplay:10.37,2013-12-04 19:19:00,
2013-12-04 14:21:00,52.3,26.1,29.49,ENE,67,2.3,0.0,36,0.00,CLR,,0.00,WeatherDisplay:10.37,2013-12-04 19:21:00,
2013-12-04 14:22:00,52.3,26.1,29.49,ENE,67,2.3,2.3,36,0.00,CLR,,0.00,WeatherDisplay:10.37,2013-12-04 19:22:00,
2013-12-04 14:23:00,52.3,26.1,29.50,East,90,2.3,2.3,36,0.00,CLR,,0.00,WeatherDisplay:10.37,2013-12-04 19:23:00,
2013-12-04 14:24:00,52.3,26.1,29.50,East,90,2.3,0.0,36,0.00,CLR,,0.00,WeatherDisplay:10.37,2013-12-04 19:24:00,
2013-12-04 14:28:00,52.3,26.8,29.44,SSE,157,1.2,1.2,37,0.04,RA,,0.04,WeatherDisplay:10.37,2013-12-04 19:28:00,
2013-12-04 14:29:00,52.3,26.8,29.44,ENE,67,1.2,1.2,37,0.04,RA,,0.04,WeatherDisplay:10.37,2013-12-04 19:29:00,
2013-12-04 14:30:00,52.2,26.0,29.47,ENE,67,1.2,1.2,36,0.04,RA,,0.04,WeatherDisplay:10.37,2013-12-04 19:30:00,
2013-12-04 14:34:00,52.3,26.8,29.52,NE,45,1.2,0.0,37,0.04,RA,,0.04,WeatherDisplay:10.37,2013-12-04 19:34:00,
2013-12-04 14:35:00,52.2,26.6,29.52,NE,45,1.2,1.2,37,0.04,RA,,0.04,WeatherDisplay:10.37,2013-12-04 19:35:00,
2013-12-04 14:36:00,52.0,26.5,29.52,NE,45,1.2,1.2,37,0.04,,,0.04,WeatherDisplay:10.37,2013-12-04 19:36:00,
2013-12-04 14:39:00,52.0,26.5,29.44,ESE,112,1.3,1.3,37,0.04,CLR,,0.04,WeatherDisplay:10.37,2013-12-04 19:39:00,
2013-12-04 14:40:00,52.0,26.5,29.44,ESE,112,1.3,1.3,37,0.04,CLR,,0.04,WeatherDisplay:10.37,2013-12-04 19:40:00,
2013-12-04 14:41:00,52.0,26.5,29.44,SE,135,1.3,3.1,37,0.04,CLR,,0.04,WeatherDisplay:10.37,2013-12-04 19:41:00,
2013-12-04 14:45:00,52.0,27.1,29.48,NE,45,3.5,0.0,38,0.04,CLR,,0.04,WeatherDisplay:10.37,2013-12-04 19:45:00,
2013-12-04 14:46:00,52.0,27.1,29.48,NE,45,3.5,0.0,38,0.04,CLR,,0.04,WeatherDisplay:10.37,2013-12-04 19:46:00,
2013-12-04 14:49:00,51.8,27.0,29.47,SW,225,3.5,3.5,38,0.04,CLR,,0.04,WeatherDisplay:10.37,2013-12-04 19:49:00,
2013-12-04 14:50:00,51.8,27.0,29.47,ENE,67,3.5,3.5,38,0.04,CLR,,0.04,WeatherDisplay:10.37,2013-12-04 19:50:00,
2013-12-04 14:51:00,51.8,26.3,29.47,ENE,67,3.5,3.5,37,0.04,CLR,,0.04,WeatherDisplay:10.37,2013-12-04 19:51:00,
2013-12-04 14:52:00,51.8,27.0,29.47,SSE,157,3.5,3.5,38,0.04,CLR,,0.04,WeatherDisplay:10.37,2013-12-04 19:52:00,
2013-12-04 14:54:00,51.8,27.0,29.47,ESE,112,3.5,0.0,38,0.04,CLR,,0.04,WeatherDisplay:10.37,2013-12-04 19:54:00,
2013-12-04 14:55:00,51.8,27.0,29.47,ESE,112,3.5,0.0,38,0.04,CLR,,0.04,WeatherDisplay:10.37,2013-12-04 19:55:00,
2013-12-04 14:56:00,51.6,26.8,29.47,ENE,67,3.5,3.5,38,0.04,CLR,,0.04,WeatherDisplay:10.37,2013-12-04 19:56:00,
2013-12-04 14:57:00,51.6,26.8,29.52,ENE,67,3.5,3.5,38,0.04,CLR,,0.04,WeatherDisplay:10.37,2013-12-04 19:57:00,
2013-12-04 14:58:00,51.6,26.8,29.52,SSE,157,3.5,0.0,38,0.04,CLR,,0.04,WeatherDisplay:10.37,2013-12-04 19:58:00,
2013-12-04 15:01:00,51.6,26.8,29.48,ESE,112,3.5,3.5,38,0.04,CLR,,0.04,WeatherDisplay:10.37,2013-12-04 20:01:00,
2013-12-04 15:03:00,51.6,26.8,29.48,SE,135,3.5,3.5,38,0.04,CLR,,0.04,WeatherDisplay:10.37,2013-12-04 20:03:00,
2013-12-04 15:04:00,51.6,26.8,29.48,SE,135,3.5,3.5,38,0.04,CLR,,0.04,WeatherDisplay:10.37,2013-12-04 20:04:00,
2013-12-04 15:05:00,51.6,26.8,29.48,SE,135,3.5,3.5,38,0.04,CLR,,0.04,WeatherDisplay:10.37,2013-12-04 20:05:00,
2013-12-04 15:06:00,51.6,26.2,29.47,ENE,67,3.5,3.5,37,0.04,CLR,,0.04,WeatherDisplay:10.37,2013-12-04 20:06:00,
2013-12-04 15:07:00,51.4,26.0,29.47,ENE,67,3.5,3.5,37,0.04,CLR,,0.04,WeatherDisplay:10.37,2013-12-04 20:07:00,
2013-12-04 15:09:00,51.4,26.6,29.47,ESE,112,3.5,3.5,38,0.04,CLR,,0.04,WeatherDisplay:10.37,2013-12-04 20:09:00,
2013-12-04 15:11:00,51.4,26.6,29.48,ENE,67,3.5,3.5,38,0.04,CLR,,0.04,WeatherDisplay:10.37,2013-12-04 20:11:00,
2013-12-04 15:12:00,51.4,26.6,29.48,WNW,292,3.5,0.0,38,0.04,CLR,,0.04,WeatherDisplay:10.37,2013-12-04 20:12:00,
2013-12-04 15:13:00,51.4,27.3,29.42,WNW,292,3.5,0.0,39,0.04,CLR,,0.04,WeatherDisplay:10.37,2013-12-04 20:13:00,
2013-12-04 15:14:00,51.4,27.3,29.42,ESE,112,3.5,3.5,39,0.04,CLR,,0.04,WeatherDisplay:10.37,2013-12-04 20:14:00,
2013-12-04 15:15:00,51.4,27.3,29.42,ESE,112,3.5,3.5,39,0.04,CLR,,0.04,WeatherDisplay:10.37,2013-12-04 20:15:00,
2013-12-04 15:17:00,51.4,26.6,29.42,SSE,157,3.5,0.0,38,0.04,CLR,,0.04,WeatherDisplay:10.37,2013-12-04 20:17:00,
2013-12-04 15:18:00,51.4,26.6,29.42,SSE,157,3.5,0.0,38,0.04,CLR,,0.04,WeatherDisplay:10.37,2013-12-04 20:18:00,
2013-12-04 15:20:00,51.3,26.5,29.52,ESE,112,3.5,3.5,38,0.04,CLR,,0.04,WeatherDisplay:10.37,2013-12-04 20:20:00,
2013-12-04 15:22:00,51.3,26.5,29.45,South,180,3.5,0.0,38,0.04,CLR,,0.04,WeatherDisplay:10.37,2013-12-04 20:22:00,
2013-12-04 15:23:00,51.3,25.8,29.48,South,180,3.5,0.0,37,0.04,CLR,,0.04,WeatherDisplay:10.37,2013-12-04 20:23:00,
2013-12-04 15:25:00,51.3,25.8,29.47,SSE,157,1.2,1.2,37,0.00,CLR,,0.04,WeatherDisplay:10.37,2013-12-04 20:25:00,
2013-12-04 15:26:00,51.3,25.8,29.47,SSE,157,1.2,1.2,37,0.00,CLR,,0.04,WeatherDisplay:10.37,2013-12-04 20:26:00,
2013-12-04 15:28:00,51.3,25.8,29.51,ESE,112,1.2,1.2,37,0.00,CLR,,0.04,WeatherDisplay:10.37,2013-12-04 20:28:00,
2013-12-04 15:30:00,51.3,26.5,29.49,NNE,22,1.2,0.0,38,0.00,CLR,,0.04,WeatherDisplay:10.37,2013-12-04 20:30:00,
2013-12-04 15:31:00,51.3,26.5,29.49,NNE,22,1.2,0.0,38,0.00,CLR,,0.04,WeatherDisplay:10.37,2013-12-04 20:31:00,
2013-12-04 15:32:00,51.3,26.5,29.49,NNE,22,3.3,0.0,38,0.00,CLR,,0.04,WeatherDisplay:10.37,2013-12-04 20:32:00,
2013-12-04 15:35:00,51.1,25.7,29.46,NW,315,3.5,0.0,37,0.00,CLR,,0.04,WeatherDisplay:10.37,2013-12-04 20:35:00,
2013-12-04 15:37:00,51.1,25.7,29.45,SSE,157,3.5,3.5,37,0.00,CLR,,0.04,WeatherDisplay:10.37,2013-12-04 20:37:00,
2013-12-04 15:38:00,51.1,25.7,29.45,SSE,157,3.5,3.5,37,0.00,CLR,,0.04,WeatherDisplay:10.37,2013-12-04 20:38:00,
2013-12-04 15:40:00,51.1,25.0,29.45,South,180,3.5,3.5,36,0.00,CLR,,0.04,WeatherDisplay:10.37,2013-12-04 20:40:00,
2013-12-04 15:42:00,51.1,25.7,29.46,NW,315,3.5,3.5,37,0.00,CLR,,0.04,WeatherDisplay:10.37,2013-12-04 20:42:00,
2013-12-04 15:43:00,51.1,25.0,29.46,SSE,157,3.5,3.5,36,0.00,CLR,,0.04,WeatherDisplay:10.37,2013-12-04 20:43:00,
2013-12-04 15:44:00,50.9,24.9,29.46,SSE,157,3.5,0.0,36,0.00,CLR,,0.04,WeatherDisplay:10.37,2013-12-04 20:44:00,
2013-12-04 15:45:00,50.9,24.9,29.46,SSE,157,3.5,0.0,36,0.00,CLR,,0.04,WeatherDisplay:10.37,2013-12-04 20:45:00,
2013-12-04 15:46:00,50.9,25.5,29.47,SE,135,3.5,3.5,37,0.00,CLR,,0.04,WeatherDisplay:10.37,2013-12-04 20:46:00,
2013-12-04 15:48:00,50.9,24.9,29.52,SE,135,3.5,3.5,36,0.00,CLR,,0.04,WeatherDisplay:10.37,2013-12-04 20:48:00,
2013-12-04 15:49:00,50.9,24.9,29.51,NNW,337,3.5,3.5,36,0.00,CLR,,0.04,WeatherDisplay:10.37,2013-12-04 20:49:00,
2013-12-04 15:50:00,50.9,24.2,29.51,NNW,337,3.5,3.5,35,0.00,CLR,,0.04,WeatherDisplay:10.37,2013-12-04 20:50:00,
2013-12-04 15:51:00,50.9,24.2,29.51,SSE,157,3.5,0.0,35,0.00,CLR,,0.04,WeatherDisplay:10.37,2013-12-04 20:51:00,
2013-12-04 15:52:00,50.9,24.2,29.51,SSE,157,3.5,0.0,35,0.00,CLR,,0.04,WeatherDisplay:10.37,2013-12-04 20:52:00,
2013-12-04 15:54:00,50.9,24.2,29.51,East,90,3.5,3.5,35,0.00,CLR,,0.04,WeatherDisplay:10.37,2013-12-04 20:54:00,
2013-12-04 15:55:00,50.9,24.2,29.51,East,90,3.5,3.5,35,0.00,CLR,,0.04,WeatherDisplay:10.37,2013-12-04 20:55:00,
2013-12-04 15:56:00,50.9,24.9,29.49,East,90,3.5,3.5,36,0.00,CLR,,0.04,WeatherDisplay:10.37,2013-12-04 20:56:00,
2013-12-04 15:57:00,50.9,24.9,29.44,East,90,3.5,3.5,36,0.00,CLR,,0.04,WeatherDisplay:10.37,2013-12-04 20:57:00,
2013-12-04 15:58:00,50.9,24.9,29.44,SSE,157,3.5,3.5,36,0.00,CLR,,0.04,WeatherDisplay:10.37,2013-12-04 20:58:00,
2013-12-04 16:00:00,50.7,24.7,29.53,East,90,3.5,3.5,36,0.00,CLR,,0.04,WeatherDisplay:10.37,2013-12-04 21:00:00,
2013-12-04 16:01:00,50.7,24.0,29.43,East,90,3.5,3.5,35,0.00,CLR,,0.04,WeatherDisplay:10.37,2013-12-04 21:01:00,
2013-12-04 16:03:00,50.7,24.0,29.43,ENE,67,3.5,3.5,35,0.00,CLR,,0.04,WeatherDisplay:10.37,2013-12-04 21:03:00,
2013-12-04 16:06:00,50.7,23.3,29.44,ENE,67,3.5,0.0,34,0.00,CLR,,0.04,WeatherDisplay:10.37,2013-12-04 21:06:00,
2013-12-04 16:07:00,50.7,23.3,29.44,ESE,112,3.5,0.0,34,0.00,CLR,,0.04,WeatherDisplay:10.37,2013-12-04 21:07:00,
2013-12-04 16:08:00,50.7,24.0,29.46,ESE,112,3.5,0.0,35,0.00,CLR,,0.04,WeatherDisplay:10.37,2013-12-04 21:08:00,
2013-12-04 16:09:00,50.7,24.0,29.46,East,90,3.5,0.0,35,0.00,CLR,,0.04,WeatherDisplay:10.37,2013-12-04 21:09:00,
2013-12-04 16:10:00,50.5,23.9,29.45,East,90,3.5,3.5,35,0.00,CLR,,0.04,WeatherDisplay:10.37,2013-12-04 21:10:00,
2013-12-04 16:12:00,50.5,23.9,29.45,ENE,67,3.5,3.5,35,0.00,CLR,,0.04,WeatherDisplay:10.37,2013-12-04 21:12:00,
2013-12-04 16:13:00,50.5,24.5,29.44,SE,135,3.5,3.5,36,0.00,CLR,,0.04,WeatherDisplay:10.37,2013-12-04 21:13:00,
2013-12-04 16:14:00,50.5,24.5,29.47,SE,135,3.5,3.5,36,0.00,CLR,,0.04,WeatherDisplay:10.37,2013-12-04 21:14:00,
2013-12-04 16:15:00,50.5,24.5,29.47,ESE,112,3.5,3.5,36,0.00,CLR,,0.04,WeatherDisplay:10.37,2013-12-04 21:15:00,
2013-12-04 16:16:00,50.5,24.5,29.47,ESE,112,3.5,3.5,36,0.00,CLR,,0.04,WeatherDisplay:10.37,2013-12-04 21:16:00,
2013-12-04 16:17:00,50.5,24.5,29.44,SW,225,3.5,3.5,36,0.00,CLR,,0.04,WeatherDisplay:10.37,2013-12-04 21:17:00,
2013-12-04 16:18:00,50.5,24.5,29.53,SW,225,3.5,3.5,36,0.00,CLR,,0.04,WeatherDisplay:10.37,2013-12-04 21:18:00,
2013-12-04 16:19:00,50.5,24.5,29.53,WSW,247,3.5,3.5,36,0.00,CLR,,0.04,WeatherDisplay:10.37,2013-12-04 21:19:00,
2013-12-04 16:20:00,50.5,24.5,29.43,WSW,247,3.5,3.5,36,0.00,CLR,,0.04,WeatherDisplay:10.37,2013-12-04 21:20:00,
2013-12-04 16:21:00,50.5,24.5,29.48,WSW,247,3.5,3.5,36,0.00,CLR,,0.04,WeatherDisplay:10.37,2013-12-04 21:21:00,
2013-12-04 16:23:00,50.5,24.5,29.48,SSW,202,3.5,3.5,36,0.00,CLR,,0.04,WeatherDisplay:10.37,2013-12-04 21:23:00,
2013-12-04 16:26:00,50.4,24.4,29.48,North,0,1.7,0.0,36,0.00,CLR,,0.04,WeatherDisplay:10.37,2013-12-04 21:26:00,
2013-12-04 16:28:00,50.4,25.0,29.43,SSE,157,1.7,1.7,37,0.00,CLR,,0.04,WeatherDisplay:10.37,2013-12-04 21:28:00,
2013-12-04 16:29:00,50.4,24.4,29.47,SSE,157,1.7,1.7,36,0.00,CLR,,0.04,WeatherDisplay:10.37,2013-12-04 21:29:00,
2013-12-04 16:30:00,50.4,24.4,29.47,ESE,112,1.7,1.7,36,0.00,CLR,,0.04,WeatherDisplay:10.37,2013-12-04 21:30:00,
2013-12-04 16:32:00,50.4,24.4,29.47,SSE,157,1.7,1.7,36,0.00,CLR,,0.04,WeatherDisplay:10.37,2013-12-04 21:32:00,
2013-12-04 16:34:00,50.4,24.4,29.47,NNE,22,1.7,0.0,36,0.00,CLR,,0.04,WeatherDisplay:10.37,2013-12-04 21:34:00,
2013-12-04 16:35:00,50.4,24.4,29.47,NNE,22,1.7,0.0,36,0.00,CLR,,0.04,WeatherDisplay:10.37,2013-12-04 21:35:00,
2013-12-04 16:38:00,50.2,24.2,29.46,ENE,67,1.7,1.7,36,0.00,CLR,,0.04,WeatherDisplay:10.37,2013-12-04 21:38:00,
2013-12-04 16:40:00,50.2,24.2,29.46,SSW,202,1.7,1.7,36,0.00,CLR,,0.04,WeatherDisplay:10.37,2013-12-04 21:40:00,
2013-12-04 16:41:00,50.2,23.5,29.39,SSW,202,1.7,1.7,35,0.00,CLR,,0.04,WeatherDisplay:10.37,2013-12-04 21:41:00,
2013-12-04 16:43:00,50.0,23.4,29.50,ESE,112,2.4,2.4,35,0.00,CLR,,0.04,WeatherDisplay:10.37,2013-12-04 21:43:00,
2013-12-04 16:45:00,50.0,23.4,29.50,SSW,202,2.4,0.0,35,0.00,CLR,,0.04,WeatherDisplay:10.37,2013-12-04 21:45:00,
2013-12-04 16:46:00,50.0,23.4,29.39,SE,135,2.4,2.4,35,0.00,CLR,,0.04,WeatherDisplay:10.37,2013-12-04 21:46:00,
2013-12-04 16:48:00,50.0,23.4,29.39,SE,135,2.4,2.4,35,0.00,CLR,,0.04,WeatherDisplay:10.37,2013-12-04 21:48:00,
2013-12-04 16:49:00,50.0,23.4,29.44,SE,135,2.4,2.4,35,0.00,CLR,,0.04,WeatherDisplay:10.37,2013-12-04 21:49:00,
2013-12-04 16:50:00,50.0,23.4,29.44,South,180,2.4,3.1,35,0.00,CLR,,0.04,WeatherDisplay:10.37,2013-12-04 21:50:00,
2013-12-04 16:52:00,49.8,23.2,29.44,South,180,3.1,3.1,35,0.00,CLR,,0.04,WeatherDisplay:10.37,2013-12-04 21:52:00,
2013-12-04 16:55:00,49.8,23.2,29.42,SSE,157,3.5,3.5,35,0.00,CLR,,0.04,WeatherDisplay:10.37,2013-12-04 21:55:00,
2013-12-04 16:56:00,49.8,23.2,29.41,SSE,157,3.5,3.5,35,0.00,CLR,,0.04,WeatherDisplay:10.37,2013-12-04 21:56:00,
2013-12-04 16:57:00,49.8,23.2,29.41,SSE,157,3.5,3.5,35,0.00,CLR,,0.04,WeatherDisplay:10.37,2013-12-04 21:57:00,
2013-12-04 16:58:00,49.8,23.2,29.51,East,90,3.5,3.5,35,0.00,CLR,,0.04,WeatherDisplay:10.37,2013-12-04 21:58:00,
2013-12-04 17:00:00,49.8,23.2,29.51,East,90,3.5,3.5,35,0.00,CLR,,0.04,WeatherDisplay:10.37,2013-12-04 22:00:00,
2013-12-04 17:02:00,49.8,23.2,29.41,SW,225,3.5,3.5,35,0.00,CLR,,0.04,WeatherDisplay:10.37,2013-12-04 22:02:00,
2013-12-04 17:03:00,49.8,23.2,29.41,SW,225,3.5,3.5,35,0.00,CLR,,0.04,WeatherDisplay:10.37,2013-12-04 22:03:00,
2013-12-04 17:04:00,49.8,22.5,29.41,NE,45,3.5,3.5,34,0.00,CLR,,0.04,WeatherDisplay:10.37,2013-12-04 22:04:00,
2013-12-04 17:05:00,49.8,22.5,29.41,NE,45,3.5,3.5,34,0.00,CLR,,0.04,WeatherDisplay:10.37,2013-12-04 22:05:00,
2013-12-04 17:06:00,50.0,22.7,29.45,SSW,202,3.5,0.0,34,0.00,CLR,,0.04,WeatherDisplay:10.37,2013-12-04 22:06:00,
2013-12-04 17:08:00,50.0,22.0,29.42,SE,135,3.5,3.5,33,0.00,CLR,,0.04,WeatherDisplay:10.37,2013-12-04 22:08:00,
2013-12-04 17:09:00,50.0,22.0,29.46,SE,135,3.5,3.5,33,0.00,CLR,,0.04,WeatherDisplay:10.37,2013-12-04 22:09:00,
2013-12-04 17:10:00,50.0,22.0,29.46,South,180,3.5,3.5,33,0.00,CLR,,0.04,WeatherDisplay:10.37,2013-12-04 22:10:00,
2013-12-04 17:13:00,50.0,22.0,29.42,SSE,157,3.5,0.0,33,0.00,CLR,,0.04,WeatherDisplay:10.37,2013-12-04 22:13:00,
2013-12-04 17:14:00,50.0,21.3,29.42,SSE,157,3.5,0.0,32,0.00,CLR,,0.04,WeatherDisplay:10.37,2013-12-04 22:14:00,
2013-12-04 17:16:00,50.0,21.3,29.42,SSE,157,3.5,0.0,32,0.00,CLR,,0.04,WeatherDisplay:10.37,2013-12-04 22:16:00,
2013-12-04 17:18:00,50.0,21.3,29.43,ENE,67,3.5,3.5,32,0.00,CLR,,0.04,WeatherDisplay:10.37,2013-12-04 22:18:00,
2013-12-04 17:19:00,50.0,21.3,29.43,WNW,292,3.5,3.5,32,0.00,CLR,,0.04,WeatherDisplay:10.37,2013-12-04 22:19:00,
2013-12-04 17:20:00,50.0,21.3,29.43,WNW,292,3.5,3.5,32,0.00,CLR,,0.04,WeatherDisplay:10.37,2013-12-04 22:20:00,
2013-12-04 17:22:00,50.0,22.0,29.45,ENE,67,3.5,3.5,33,0.00,CLR,,0.04,WeatherDisplay:10.37,2013-12-04 22:22:00,
2013-12-04 17:23:00,50.0,21.3,29.39,ESE,112,3.5,3.5,32,0.00,CLR,,0.04,WeatherDisplay:10.37,2013-12-04 22:23:00,
2013-12-04 17:25:00,50.0,21.3,29.39,ENE,67,1.7,0.0,32,0.00,CLR,,0.04,WeatherDisplay:10.37,2013-12-04 22:25:00,
2013-12-04 17:26:00,50.0,21.3,29.36,ENE,67,1.7,0.0,32,0.00,CLR,,0.04,WeatherDisplay:10.37,2013-12-04 22:26:00,
2013-12-04 17:28:00,50.0,21.3,29.40,East,90,1.7,0.0,32,0.00,CLR,,0.04,WeatherDisplay:10.37,2013-12-04 22:28:00,
2013-12-04 17:29:00,50.0,22.0,29.37,East,90,1.7,0.0,33,0.00,CLR,,0.04,WeatherDisplay:10.37,2013-12-04 22:29:00,
2013-12-04 17:30:00,50.0,22.0,29.37,East,90,1.7,0.0,33,0.00,CLR,,0.04,WeatherDisplay:10.37,2013-12-04 22:30:00,
2013-12-04 17:31:00,50.0,22.0,29.37,SW,225,1.7,0.0,33,0.00,CLR,,0.04,WeatherDisplay:10.37,2013-12-04 22:31:00,
2013-12-04 17:33:00,50.0,22.7,29.43,SW,225,1.7,1.7,34,0.00,CLR,,0.04,WeatherDisplay:10.37,2013-12-04 22:33:00,
2013-12-04 17:35:00,50.0,22.7,29.39,North,0,1.7,1.7,34,0.00,CLR,,0.04,WeatherDisplay:10.37,2013-12-04 22:35:00,
2013-12-04 17:36:00,50.0,22.7,29.39,North,0,1.7,1.7,34,0.00,CLR,,0.04,WeatherDisplay:10.37,2013-12-04 22:36:00,
2013-12-04 17:38:00,50.0,22.7,29.41,SSE,157,1.7,1.7,34,0.00,CLR,,0.04,WeatherDisplay:10.37,2013-12-04 22:38:00,
2013-12-04 17:40:00,50.0,22.7,29.41,WNW,292,2.3,2.3,34,0.00,CLR,,0.04,WeatherDisplay:10.37,2013-12-04 22:40:00,
2013-12-04 17:41:00,50.0,22.0,29.44,WNW,292,2.3,2.3,33,0.00,CLR,,0.04,WeatherDisplay:10.37,2013-12-04 22:41:00,
2013-12-04 17:42:00,50.0,22.0,29.44,SSE,157,2.3,2.3,33,0.00,CLR,,0.04,WeatherDisplay:10.37,2013-12-04 22:42:00,
2013-12-04 17:45:00,50.2,21.4,29.40,ESE,112,2.8,2.8,32,0.00,CLR,,0.04,WeatherDisplay:10.37,2013-12-04 22:45:00,
2013-12-04 17:47:00,50.2,21.4,29.39,SSE,157,2.8,2.8,32,0.00,CLR,,0.04,WeatherDisplay:10.37,2013-12-04 22:47:00,
2013-12-04 17:48:00,50.2,21.4,29.39,SSE,157,2.8,2.8,32,0.00,CLR,,0.04,WeatherDisplay:10.37,2013-12-04 22:48:00,
2013-12-04 17:52:00,50.2,22.1,29.39,SSE,157,2.8,0.0,33,0.00,CLR,,0.04,WeatherDisplay:10.37,2013-12-04 22:52:00,
2013-12-04 17:53:00,50.2,22.1,29.39,SSE,157,2.8,0.0,33,0.00,CLR,,0.04,WeatherDisplay:10.37,2013-12-04 22:53:00,
2013-12-04 17:54:00,50.2,22.1,29.39,SSE,157,2.8,0.0,33,0.00,CLR,,0.04,WeatherDisplay:10.37,2013-12-04 22:54:00,
2013-12-04 17:56:00,50.2,22.1,29.39,SE,135,2.8,2.8,33,0.00,CLR,,0.04,WeatherDisplay:10.37,2013-12-04 22:56:00,
2013-12-04 17:57:00,50.2,22.1,29.41,South,180,2.8,2.8,33,0.00,CLR,,0.04,WeatherDisplay:10.37,2013-12-04 22:57:00,
2013-12-04 17:58:00,50.2,22.9,29.39,South,180,2.8,2.8,34,0.00,CLR,,0.04,WeatherDisplay:10.37,2013-12-04 22:58:00,
2013-12-04 17:59:00,50.2,22.9,29.39,East,90,2.8,2.8,34,0.00,CLR,,0.04,WeatherDisplay:10.37,2013-12-04 22:59:00,
2013-12-04 18:00:00,50.4,23.0,29.39,East,90,2.8,2.8,34,0.00,CLR,,0.04,WeatherDisplay:10.37,2013-12-04 23:00:00,
2013-12-04 18:03:00,50.4,22.3,29.40,East,90,2.8,2.8,33,0.00,CLR,,0.04,WeatherDisplay:10.37,2013-12-04 23:03:00,
2013-12-04 18:04:00,50.4,22.3,29.39,East,90,2.8,2.8,33,0.00,CLR,,0.04,WeatherDisplay:10.37,2013-12-04 23:04:00,
2013-12-04 18:05:00,50.4,22.3,29.43,East,90,2.8,2.8,33,0.00,CLR,,0.04,WeatherDisplay:10.37,2013-12-04 23:05:00,
2013-12-04 18:06:00,50.4,22.3,29.43,ESE,112,2.8,2.8,33,0.00,CLR,,0.04,WeatherDisplay:10.37,2013-12-04 23:06:00,
2013-12-04 18:08:00,50.5,22.5,29.40,SE,135,2.8,2.8,33,0.00,CLR,,0.04,WeatherDisplay:10.37,2013-12-04 23:08:00,
2013-12-04 18:09:00,50.5,22.5,29.40,SE,135,2.8,2.8,33,0.00,CLR,,0.04,WeatherDisplay:10.37,2013-12-04 23:09:00,
2013-12-04 18:10:00,50.5,22.5,29.40,SE,135,2.8,2.8,33,0.00,CLR,,0.04,WeatherDisplay:10.37,2013-12-04 23:10:00,
2013-12-04 18:11:00,50.5,22.5,29.40,SE,135,2.8,2.8,33,0.00,CLR,,0.04,WeatherDisplay:10.37,2013-12-04 23:11:00,
2013-12-04 18:12:00,50.5,22.5,29.40,NE,45,2.8,2.8,33,0.00,CLR,,0.04,WeatherDisplay:10.37,2013-12-04 23:12:00,
2013-12-04 18:13:00,50.5,22.5,29.34,NE,45,2.8,2.8,33,0.00,CLR,,0.04,WeatherDisplay:10.37,2013-12-04 23:13:00,
2013-12-04 18:14:00,50.4,22.3,29.34,ESE,112,2.8,2.8,33,0.00,CLR,,0.04,WeatherDisplay:10.37,2013-12-04 23:14:00,
2013-12-04 18:16:00,50.4,22.3,29.36,SE,135,2.8,2.8,33,0.00,CLR,,0.04,WeatherDisplay:10.37,2013-12-04 23:16:00,
2013-12-04 18:18:00,50.4,22.3,29.34,East,90,2.8,2.8,33,0.00,CLR,,0.04,WeatherDisplay:10.37,2013-12-04 23:18:00,
2013-12-04 18:20:00,50.2,22.9,29.45,SW,225,2.8,2.8,34,0.00,CLR,,0.04,WeatherDisplay:10.37,2013-12-04 23:20:00,
2013-12-04 18:22:00,50.2,22.9,29.45,SSE,157,2.3,2.3,34,0.00,CLR,,0.04,WeatherDisplay:10.37,2013-12-04 23:22:00,
2013-12-04 18:23:00,50.2,22.9,29.41,SSE,157,1.2,1.2,34,0.00,CLR,,0.04,WeatherDisplay:10.37,2013-12-04 23:23:00,
2013-12-04 18:24:00,50.0,22.7,29.41,ESE,112,1.2,0.0,34,0.00,CLR,,0.04,WeatherDisplay:10.37,2013-12-04 23:24:00,
2013-12-04 18:25:00,50.0,22.7,29.41,ESE,112,1.2,0.0,34,0.00,CLR,,0.04,WeatherDisplay:10.37,2013-12-04 23:25:00,
2013-12-04 18:27:00,50.0,22.0,29.39,SE,135,1.3,1.3,33,0.00,CLR,,0.04,WeatherDisplay:10.37,2013-12-04 23:27:00,
2013-12-04 18:28:00,50.0,22.0,29.39,SE,135,1.3,1.3,33,0.00,CLR,,0.04,WeatherDisplay:10.37,2013-12-04 23:28:00,
2013-12-04 18:29:00,50.0,22.0,29.39,SW,225,1.3,1.3,33,0.00,CLR,,0.04,WeatherDisplay:10.37,2013-12-04 23:29:00,
2013-12-04 18:32:00,50.0,22.0,29.48,NNW,337,1.3,1.3,33,0.00,CLR,,0.04,WeatherDisplay:10.37,2013-12-04 23:32:00,
2013-12-04 18:33:00,50.0,22.0,29.48,NNW,337,1.3,1.3,33,0.00,CLR,,0.04,WeatherDisplay:10.37,2013-12-04 23:33:00,
2013-12-04 18:34:00,49.8,21.8,29.48,ENE,67,1.3,0.0,33,0.00,CLR,,0.04,WeatherDisplay:10.37,2013-12-04 23:34:00,
2013-12-04 18:38:00,49.8,21.8,29.46,SW,225,1.3,1.3,33,0.00,CLR,,0.04,WeatherDisplay:10.37,2013-12-04 23:38:00,
2013-12-04 18:39:00,49.6,21.7,29.42,SW,225,1.3,1.3,33,0.00,CLR,,0.04,WeatherDisplay:10.37,2013-12-04 23:39:00,
2013-12-04 18:40:00,49.6,21.7,29.42,NE,45,1.3,1.3,33,0.00,CLR,,0.04,WeatherDisplay:10.37,2013-12-04 23:40:00,
2013-12-04 18:43:00,49.8,21.1,29.39,East,90,1.3,1.3,32,0.00,CLR,,0.04,WeatherDisplay:10.37,2013-12-04 23:43:00,
2013-12-04 18:44:00,49.6,20.9,29.39,South,180,1.3,1.3,32,0.00,CLR,,0.04,WeatherDisplay:10.37,2013-12-04 23:44:00,
2013-12-04 18:46:00,49.6,20.2,29.43,ESE,112,1.3,0.0,31,0.00,CLR,,0.04,WeatherDisplay:10.37,2013-12-04 23:46:00,
2013-12-04 18:47:00,49.6,20.2,29.43,ESE,112,1.3,0.0,31,0.00,CLR,,0.04,WeatherDisplay:10.37,2013-12-04 23:47:00,
2013-12-04 18:48:00,49.6,19.4,29.39,ESE,112,1.3,3.1,30,0.00,CLR,,0.04,WeatherDisplay:10.37,2013-12-04 23:48:00,
2013-12-04 18:49:00,49.6,19.4,29.39,WNW,292,3.5,3.5,30,0.00,CLR,,0.04,WeatherDisplay:10.37,2013-12-04 23:49:00,
2013-12-04 18:50:00,49.6,20.2,29.39,WNW,292,3.5,3.5,31,0.00,CLR,,0.04,WeatherDisplay:10.37,2013-12-04 23:50:00,
2013-12-04 18:52:00,49.6,20.2,29.39,ESE,112,3.5,3.6,31,0.00,CLR,,0.04,WeatherDisplay:10.37,2013-12-04 23:52:00,
2013-12-04 18:53:00,49.8,21.1,29.41,SSE,157,3.6,3.6,32,0.00,CLR,,0.04,WeatherDisplay:10.37,2013-12-04 23:53:00,
2013-12-04 18:55:00,49.8,20.4,29.41,South,180,3.6,3.6,31,0.00,CLR,,0.04,WeatherDisplay:10.37,2013-12-04 23:55:00,
2013-12-04 18:56:00,49.8,20.4,29.43,South,180,3.6,3.6,31,0.00,CLR,,0.04,WeatherDisplay:10.37,2013-12-04 23:56:00,
2013-12-04 18:57:00,49.8,21.1,29.43,SSE,157,3.6,3.6,32,0.00,CLR,,0.04,WeatherDisplay:10.37,2013-12-04 23:57:00,
2013-12-04 19:00:00,49.8,20.4,29.42,East,90,3.6,3.6,31,0.00,CLR,,0.04,WeatherDisplay:10.37,2013-12-05 00:00:00,
2013-12-04 19:01:00,49.8,20.4,29.42,SSE,157,3.6,3.6,31,0.00,CLR,,0.04,WeatherDisplay:10.37,2013-12-05 00:01:00,
2013-12-04 19:02:00,49.8,20.4,29.42,SSE,157,3.6,3.6,31,0.00,CLR,,0.08,WeatherDisplay:10.37,2013-12-05 00:02:00,
2013-12-04 19:03:00,49.8,20.4,29.42,SE,135,3.6,3.6,31,0.00,CLR,,0.08,WeatherDisplay:10.37,2013-12-05 00:03:00,
2013-12-04 19:04:00,49.8,21.8,29.40,West,270,3.6,3.6,33,0.04,RA,,0.12,WeatherDisplay:10.37,2013-12-05 00:04:00,
2013-12-04 19:06:00,49.8,21.8,29.33,West,270,3.6,3.6,33,0.08,RA,,0.12,WeatherDisplay:10.37,2013-12-05 00:06:00,
2013-12-04 19:08:00,49.8,21.8,29.40,SSE,157,3.6,3.6,33,0.08,RA,,0.12,WeatherDisplay:10.37,2013-12-05 00:08:00,
2013-12-04 19:10:00,49.8,21.8,29.39,South,180,3.6,3.6,33,0.08,RA,,0.12,WeatherDisplay:10.37,2013-12-05 00:10:00,
2013-12-04 19:12:00,49.8,21.1,29.39,South,180,3.6,3.6,32,0.08,RA,,0.12,WeatherDisplay:10.37,2013-12-05 00:12:00,
2013-12-04 19:13:00,49.8,21.1,29.39,South,180,3.6,3.6,32,0.08,RA,,0.12,WeatherDisplay:10.37,2013-12-05 00:13:00,
2013-12-04 19:14:00,49.8,21.1,29.39,South,180,3.6,3.6,32,0.08,RA,,0.12,WeatherDisplay:10.37,2013-12-05 00:14:00,
2013-12-04 19:17:00,49.8,21.1,29.37,North,0,3.6,3.6,32,0.08,,,0.12,WeatherDisplay:10.37,2013-12-05 00:17:00,
2013-12-04 19:18:00,49.8,21.1,29.40,North,0,3.6,3.6,32,0.08,CLR,,0.12,WeatherDisplay:10.37,2013-12-05 00:18:00,
2013-12-04 19:20:00,49.8,21.1,29.41,ENE,67,3.6,3.6,32,0.08,CLR,,0.12,WeatherDisplay:10.37,2013-12-05 00:20:00,
2013-12-04 19:22:00,49.8,21.8,29.37,WSW,247,3.5,3.5,33,0.08,CLR,,0.12,WeatherDisplay:10.37,2013-12-05 00:22:00,
2013-12-04 19:24:00,49.8,21.8,29.42,West,270,2.6,2.6,33,0.08,CLR,,0.12,WeatherDisplay:10.37,2013-12-05 00:24:00,
2013-12-04 19:26:00,50.0,22.0,29.42,SSW,202,2.6,2.6,33,0.08,CLR,,0.12,WeatherDisplay:10.37,2013-12-05 00:26:00,
2013-12-04 19:27:00,50.0,22.0,29.37,SSW,202,2.6,2.6,33,0.08,CLR,,0.12,WeatherDisplay:10.37,2013-12-05 00:27:00,
2013-12-04 19:28:00,49.8,21.8,29.36,SSW,202,2.6,2.6,33,0.08,CLR,,0.12,WeatherDisplay:10.37,2013-12-05 00:28:00,
2013-12-04 19:29:00,49.8,21.8,29.36,WNW,292,2.6,2.6,33,0.08,CLR,,0.12,WeatherDisplay:10.37,2013-12-05 00:29:00,
2013-12-04 19:31:00,49.8,21.8,29.36,WNW,292,2.6,2.6,33,0.08,CLR,,0.12,WeatherDisplay:10.37,2013-12-05 00:31:00,
2013-12-04 19:33:00,50.0,22.0,29.36,NE,45,2.8,2.8,33,0.08,CLR,,0.12,WeatherDisplay:10.37,2013-12-05 00:33:00,
2013-12-04 19:34:00,50.0,22.0,29.36,NE,45,2.8,2.8,33,0.08,CLR,,0.12,WeatherDisplay:10.37,2013-12-05 00:34:00,
2013-12-04 19:35:00,50.0,22.0,29.36,SSE,157,2.8,2.8,33,0.08,CLR,,0.12,WeatherDisplay:10.37,2013-12-05 00:35:00,
2013-12-04 19:36:00,50.0,22.0,29.36,SSE,157,2.8,2.8,33,0.08,CLR,,0.12,WeatherDisplay:10.37,2013-12-05 00:36:00,
2013-12-04 19:39:00,50.0,22.0,29.36,SSE,157,2.8,2.8,33,0.08,CLR,,0.12,WeatherDisplay:10.37,2013-12-05 00:39:00,
2013-12-04 19:40:00,50.0,22.7,29.36,SSW,202,2.8,2.8,34,0.08,CLR,,0.12,WeatherDisplay:10.37,2013-12-05 00:40:00,
2013-12-04 19:44:00,50.4,22.3,29.37,SSE,157,3.5,3.5,33,0.08,CLR,,0.12,WeatherDisplay:10.37,2013-12-05 00:44:00,
2013-12-04 19:45:00,50.4,22.3,29.37,SSE,157,3.5,3.5,33,0.08,CLR,,0.12,WeatherDisplay:10.37,2013-12-05 00:45:00,
2013-12-04 19:46:00,50.4,22.3,29.37,SSE,157,3.5,3.5,33,0.08,CLR,,0.12,WeatherDisplay:10.37,2013-12-05 00:46:00,
2013-12-04 19:47:00,50.4,22.3,29.37,WSW,247,3.5,3.5,33,0.08,CLR,,0.12,WeatherDisplay:10.37,2013-12-05 00:47:00,
2013-12-04 19:50:00,50.4,22.3,29.39,South,180,3.5,3.5,33,0.08,CLR,,0.12,WeatherDisplay:10.37,2013-12-05 00:50:00,
2013-12-04 19:52:00,50.4,22.3,29.39,WNW,292,3.5,3.5,33,0.08,CLR,,0.12,WeatherDisplay:10.37,2013-12-05 00:52:00,
2013-12-04 19:53:00,50.4,22.3,29.37,WNW,292,3.5,3.5,33,0.08,CLR,,0.12,WeatherDisplay:10.37,2013-12-05 00:53:00,
2013-12-04 19:55:00,50.4,22.3,29.33,North,0,3.5,3.5,33,0.08,CLR,,0.12,WeatherDisplay:10.37,2013-12-05 00:55:00,
2013-12-04 19:56:00,50.4,22.3,29.33,SSW,202,3.5,3.5,33,0.08,CLR,,0.12,WeatherDisplay:10.37,2013-12-05 00:56:00,
2013-12-04 19:57:00,50.4,22.3,29.33,SSW,202,3.5,3.5,33,0.08,CLR,,0.12,WeatherDisplay:10.37,2013-12-05 00:57:00,
2013-12-04 19:59:00,50.5,22.5,29.33,South,180,3.5,3.5,33,0.08,CLR,,0.12,WeatherDisplay:10.37,2013-12-05 00:59:00,
2013-12-04 20:00:00,50.5,22.5,29.33,SW,225,3.5,3.5,33,0.08,CLR,,0.12,WeatherDisplay:10.37,2013-12-05 01:00:00,
2013-12-04 20:02:00,50.5,22.5,29.33,SW,225,3.5,3.5,33,0.08,CLR,,0.12,WeatherDisplay:10.37,2013-12-05 01:02:00,
2013-12-04 20:03:00,50.5,22.5,29.39,SW,225,3.5,3.5,33,0.08,CLR,,0.12,WeatherDisplay:10.37,2013-12-05 01:03:00,
2013-12-04 20:07:00,50.5,22.5,29.43,SE,135,3.5,3.5,33,0.00,CLR,,0.12,WeatherDisplay:10.37,2013-12-05 01:07:00,
2013-12-04 20:08:00,50.5,22.5,29.43,SE,135,3.5,3.5,33,0.00,CLR,,0.12,WeatherDisplay:10.37,2013-12-05 01:08:00,
2013-12-04 20:09:00,50.7,22.6,29.40,SSE,157,4.6,4.6,33,0.00,CLR,,0.12,WeatherDisplay:10.37,2013-12-05 01:09:00,
2013-12-04 20:10:00,50.7,22.6,29.33,SSE,157,4.6,4.6,33,0.00,CLR,,0.12,WeatherDisplay:10.37,2013-12-05 01:10:00,
2013-12-04 20:14:00,50.9,22.8,29.40,SE,135,4.6,4.6,33,0.00,CLR,,0.12,WeatherDisplay:10.37,2013-12-05 01:14:00,
2013-12-04 20:15:00,50.9,22.8,29.40,SE,135,4.6,4.6,33,0.00,CLR,,0.12,WeatherDisplay:10.37,2013-12-05 01:15:00,
2013-12-04 20:16:00,50.9,23.5,29.39,SSE,157,4.6,4.6,34,0.00,CLR,,0.12,WeatherDisplay:10.37,2013-12-05 01:16:00,
2013-12-04 20:19:00,50.9,23.5,29.33,SSE,157,4.6,4.6,34,0.00,CLR,,0.12,WeatherDisplay:10.37,2013-12-05 01:19:00,
2013-12-04 20:20:00,51.1,23.7,29.39,SSE,157,4.6,4.6,34,0.00,CLR,,0.12,WeatherDisplay:10.37,2013-12-05 01:20:00,
2013-12-04 20:21:00,51.1,23.7,29.39,SSE,157,4.6,4.6,34,0.00,CLR,,0.12,WeatherDisplay:10.37,2013-12-05 01:21:00,
2013-12-04 20:23:00,51.1,24.3,29.33,SSE,157,4.6,4.6,35,0.00,CLR,,0.12,WeatherDisplay:10.37,2013-12-05 01:23:00,
2013-12-04 20:25:00,51.1,24.3,29.42,West,270,1.3,2.0,35,0.00,CLR,,0.12,WeatherDisplay:10.37,2013-12-05 01:25:00,
2013-12-04 20:27:00,51.3,24.5,29.33,South,180,2.4,2.4,35,0.00,CLR,,0.12,WeatherDisplay:10.37,2013-12-05 01:27:00,
2013-12-04 20:30:00,51.3,24.5,29.33,SE,135,2.6,2.6,35,0.00,CLR,,0.12,WeatherDisplay:10.37,2013-12-05 01:30:00,
2013-12-04 20:32:00,51.3,24.5,29.37,SE,135,3.3,3.3,35,0.00,CLR,,0.12,WeatherDisplay:10.37,2013-12-05 01:32:00,
2013-12-04 20:33:00,51.4,24.0,29.37,ESE,112,3.5,3.5,34,0.00,CLR,,0.12,WeatherDisplay:10.37,2013-12-05 01:33:00,
2013-12-04 20:35:00,51.4,24.0,29.37,ESE,112,3.5,3.5,34,0.00,CLR,,0.12,WeatherDisplay:10.37,2013-12-05 01:35:00,
2013-12-04 20:36:00,51.4,24.0,29.37,South,180,3.5,3.5,34,0.00,CLR,,0.12,WeatherDisplay:10.37,2013-12-05 01:36:00,
2013-12-04 20:37:00,51.4,24.0,29.37,SSE,157,3.5,3.5,34,0.00,CLR,,0.12,WeatherDisplay:10.37,2013-12-05 01:37:00,
2013-12-04 20:38:00,51.6,24.1,29.34,SSE,157,3.5,3.5,34,0.00,CLR,,0.12,WeatherDisplay:10.37,2013-12-05 01:38:00,
2013-12-04 20:39:00,51.6,24.1,29.34,WSW,247,3.5,3.5,34,0.00,CLR,,0.12,WeatherDisplay:10.37,2013-12-05 01:39:00,
2013-12-04 20:41:00,51.6,24.8,29.36,WSW,247,3.5,3.5,35,0.00,CLR,,0.12,WeatherDisplay:10.37,2013-12-05 01:41:00,
2013-12-04 20:43:00,51.6,24.8,29.36,NNW,337,3.5,3.5,35,0.00,CLR,,0.12,WeatherDisplay:10.37,2013-12-05 01:43:00,
2013-12-04 20:44:00,51.6,24.1,29.36,NNW,337,3.5,3.5,34,0.00,CLR,,0.12,WeatherDisplay:10.37,2013-12-05 01:44:00,
2013-12-04 20:46:00,51.8,25.0,29.36,SW,225,3.5,3.5,35,0.00,CLR,,0.12,WeatherDisplay:10.37,2013-12-05 01:46:00,
2013-12-04 20:48:00,51.8,25.0,29.33,NNE,22,3.5,3.5,35,0.00,CLR,,0.12,WeatherDisplay:10.37,2013-12-05 01:48:00,
2013-12-04 20:49:00,51.8,25.0,29.33,West,270,3.5,3.5,35,0.00,CLR,,0.12,WeatherDisplay:10.37,2013-12-05 01:49:00,
2013-12-04 20:50:00,51.8,25.0,29.34,West,270,3.5,3.5,35,0.00,CLR,,0.12,WeatherDisplay:10.37,2013-12-05 01:50:00,
2013-12-04 20:51:00,51.8,25.0,29.34,ESE,112,3.5,3.5,35,0.00,CLR,,0.12,WeatherDisplay:10.37,2013-12-05 01:51:00,
2013-12-04 20:52:00,51.8,25.0,29.34,ESE,112,3.5,3.5,35,0.00,CLR,,0.12,WeatherDisplay:10.37,2013-12-05 01:52:00,
2013-12-04 20:54:00,51.8,25.0,29.33,SW,225,3.5,3.5,35,0.00,CLR,,0.12,WeatherDisplay:10.37,2013-12-05 01:54:00,
2013-12-04 20:55:00,51.8,25.0,29.33,South,180,3.5,3.5,35,0.00,CLR,,0.12,WeatherDisplay:10.37,2013-12-05 01:55:00,
2013-12-04 20:57:00,52.0,25.1,29.39,SE,135,3.5,3.5,35,0.00,CLR,,0.12,WeatherDisplay:10.37,2013-12-05 01:57:00,
2013-12-04 20:58:00,52.0,25.1,29.39,SE,135,3.5,3.5,35,0.00,CLR,,0.12,WeatherDisplay:10.37,2013-12-05 01:58:00,
2013-12-04 21:01:00,52.0,25.1,29.37,South,180,3.5,3.5,35,0.00,CLR,,0.12,WeatherDisplay:10.37,2013-12-05 02:01:00,
2013-12-04 21:02:00,52.0,25.1,29.37,South,180,3.5,3.5,35,0.00,CLR,,0.12,WeatherDisplay:10.37,2013-12-05 02:02:00,
2013-12-04 21:03:00,52.0,25.1,29.37,ESE,112,3.5,3.5,35,0.00,CLR,,0.12,WeatherDisplay:10.37,2013-12-05 02:03:00,
2013-12-04 21:04:00,52.0,25.1,29.34,ESE,112,3.5,3.5,35,0.00,CLR,,0.12,WeatherDisplay:10.37,2013-12-05 02:04:00,
2013-12-04 21:07:00,52.0,25.1,29.36,SSW,202,3.5,3.5,35,0.00,CLR,,0.12,WeatherDisplay:10.37,2013-12-05 02:07:00,
2013-12-04 21:08:00,52.2,25.3,29.36,SSW,202,3.5,3.5,35,0.00,CLR,,0.12,WeatherDisplay:10.37,2013-12-05 02:08:00,
2013-12-04 21:09:00,52.2,25.3,29.36,ESE,112,3.5,3.5,35,0.00,CLR,,0.12,WeatherDisplay:10.37,2013-12-05 02:09:00,
2013-12-04 21:13:00,52.2,25.3,29.37,SSE,157,3.5,3.5,35,0.00,CLR,,0.12,WeatherDisplay:10.37,2013-12-05 02:13:00,
2013-12-04 21:14:00,52.2,25.3,29.37,SSE,157,3.5,3.5,35,0.00,CLR,,0.12,WeatherDisplay:10.37,2013-12-05 02:14:00,
2013-12-04 21:15:00,52.2,25.3,29.37,SSE,157,3.5,3.5,35,0.00,CLR,,0.12,WeatherDisplay:10.37,2013-12-05 02:15:00,
2013-12-04 21:16:00,52.2,25.3,29.39,WNW,292,3.5,0.0,35,0.00,CLR,,0.12,WeatherDisplay:10.37,2013-12-05 02:16:00,
2013-12-04 21:17:00,52.2,25.3,29.39,WNW,292,3.5,0.0,35,0.00,CLR,,0.12,WeatherDisplay:10.37,2013-12-05 02:17:00,
2013-12-04 21:20:00,52.2,26.0,29.37,SSW,202,3.5,3.5,36,0.00,CLR,,0.12,WeatherDisplay:10.37,2013-12-05 02:20:00,
2013-12-04 21:21:00,52.2,25.3,29.37,South,180,3.5,3.5,35,0.00,CLR,,0.12,WeatherDisplay:10.37,2013-12-05 02:21:00,
2013-12-04 21:22:00,52.2,25.3,29.37,South,180,3.5,3.5,35,0.00,CLR,,0.12,WeatherDisplay:10.37,2013-12-05 02:22:00,
2013-12-04 21:25:00,52.2,25.3,29.36,SE,135,2.3,2.3,35,0.00,CLR,,0.12,WeatherDisplay:10.37,2013-12-05 02:25:00,
2013-12-04 21:26:00,52.2,25.3,29.36,WSW,247,2.3,2.3,35,0.00,CLR,,0.12,WeatherDisplay:10.37,2013-12-05 02:26:00,
2013-12-04 21:30:00,52.3,26.8,29.37,SSE,157,2.4,2.4,37,0.00,CLR,,0.12,WeatherDisplay:10.37,2013-12-05 02:30:00,
2013-12-04 21:31:00,52.3,26.8,29.37,SSE,157,2.4,2.4,37,0.00,CLR,,0.12,WeatherDisplay:10.37,2013-12-05 02:31:00,
2013-12-04 21:32:00,52.3,26.8,29.37,ESE,112,2.4,2.4,37,0.00,CLR,,0.12,WeatherDisplay:10.37,2013-12-05 02:32:00,
2013-12-04 21:33:00,52.3,26.1,29.37,ESE,112,2.4,2.4,36,0.00,CLR,,0.12,WeatherDisplay:10.37,2013-12-05 02:33:00,
2013-12-04 21:36:00,52.5,27.0,29.41,ESE,112,2.4,0.0,37,0.00,CLR,,0.12,WeatherDisplay:10.37,2013-12-05 02:36:00,
2013-12-04 21:37:00,52.5,27.0,29.41,NNE,22,2.4,2.4,37,0.00,CLR,,0.12,WeatherDisplay:10.37,2013-12-05 02:37:00,
2013-12-04 21:38:00,52.5,27.0,29.41,SSW,202,2.4,2.4,37,0.00,CLR,,0.12,WeatherDisplay:10.37,2013-12-05 02:38:00,
2013-12-04 21:40:00,52.5,27.6,29.39,ESE,112,2.4,2.4,38,0.00,CLR,,0.12,WeatherDisplay:10.37,2013-12-05 02:40:00,
2013-12-04 21:42:00,52.5,27.6,29.39,SE,135,2.4,2.4,38,0.00,CLR,,0.12,WeatherDisplay:10.37,2013-12-05 02:42:00,
2013-12-04 21:43:00,52.5,27.0,29.33,SSW,202,2.4,2.4,37,0.00,CLR,,0.12,WeatherDisplay:10.37,2013-12-05 02:43:00,
2013-12-04 21:45:00,52.5,27.0,29.33,SSW,202,2.4,0.0,37,0.00,CLR,,0.12,WeatherDisplay:10.37,2013-12-05 02:45:00,
2013-12-04 21:46:00,52.5,27.0,29.36,SSW,202,2.4,0.0,37,0.00,CLR,,0.12,WeatherDisplay:10.37,2013-12-05 02:46:00,
2013-12-04 21:48:00,52.5,27.0,29.33,SSE,157,2.4,2.4,37,0.00,CLR,,0.12,WeatherDisplay:10.37,2013-12-05 02:48:00,
2013-12-04 21:50:00,52.5,27.0,29.33,South,180,2.4,2.4,37,0.00,CLR,,0.12,WeatherDisplay:10.37,2013-12-05 02:50:00,
2013-12-04 21:51:00,52.7,27.1,29.33,South,180,2.4,2.4,37,0.00,CLR,,0.12,WeatherDisplay:10.37,2013-12-05 02:51:00,
2013-12-04 21:52:00,52.7,27.1,29.33,NNE,22,2.4,2.4,37,0.00,CLR,,0.12,WeatherDisplay:10.37,2013-12-05 02:52:00,
2013-12-04 21:53:00,52.7,27.1,29.33,NNE,22,2.4,2.4,37,0.00,CLR,,0.12,WeatherDisplay:10.37,2013-12-05 02:53:00,
2013-12-04 21:55:00,52.7,27.1,29.41,NNW,337,2.4,2.4,37,0.00,CLR,,0.12,WeatherDisplay:10.37,2013-12-05 02:55:00,
2013-12-04 21:57:00,52.7,27.1,29.33,NNW,337,2.4,2.4,37,0.00,CLR,,0.12,WeatherDisplay:10.37,2013-12-05 02:57:00,
2013-12-04 21:58:00,52.7,27.1,29.33,ENE,67,2.4,2.4,37,0.00,CLR,,0.12,WeatherDisplay:10.37,2013-12-05 02:58:00,
2013-12-04 22:01:00,52.7,27.8,29.33,NNW,337,2.4,2.4,38,0.00,CLR,,0.12,WeatherDisplay:10.37,2013-12-05 03:01:00,
2013-12-04 22:03:00,52.7,27.8,29.41,NNW,337,2.4,2.4,38,0.00,CLR,,0.12,WeatherDisplay:10.37,2013-12-05 03:03:00,
2013-12-04 22:04:00,52.7,27.8,29.41,NNW,337,2.4,2.4,38,0.00,CLR,,0.12,WeatherDisplay:10.37,2013-12-05 03:04:00,
2013-12-04 22:08:00,52.7,27.1,29.33,West,270,2.4,2.4,37,0.00,CLR,,0.12,WeatherDisplay:10.37,2013-12-05 03:08:00,
2013-12-04 22:10:00,52.9,26.6,29.31,SSE,157,2.4,2.4,36,0.00,CLR,,0.12,WeatherDisplay:10.37,2013-12-05 03:10:00,
2013-12-04 22:11:00,52.9,26.6,29.31,SSE,157,2.4,2.4,36,0.00,CLR,,0.12,WeatherDisplay:10.37,2013-12-05 03:11:00,
2013-12-04 22:14:00,52.9,26.6,29.33,South,180,2.4,2.4,36,0.00,CLR,,0.12,WeatherDisplay:10.37,2013-12-05 03:14:00,
2013-12-04 22:15:00,53.1,26.8,29.36,ESE,112,2.4,2.4,36,0.00,CLR,,0.12,WeatherDisplay:10.37,2013-12-05 03:15:00,
2013-12-04 22:16:00,53.1,26.8,29.33,ESE,112,2.4,2.4,36,0.00,CLR,,0.12,WeatherDisplay:10.37,2013-12-05 03:16:00,
2013-12-04 22:18:00,53.2,26.9,29.37,WSW,247,2.4,2.6,36,0.00,CLR,,0.12,WeatherDisplay:10.37,2013-12-05 03:18:00,
2013-12-04 22:19:00,53.2,27.6,29.33,SSE,157,2.6,2.6,37,0.00,CLR,,0.12,WeatherDisplay:10.37,2013-12-05 03:19:00,
2013-12-04 22:20:00,53.2,27.6,29.33,SSE,157,2.6,2.6,37,0.00,CLR,,0.12,WeatherDisplay:10.37,2013-12-05 03:20:00,
2013-12-04 22:23:00,53.6,27.9,29.33,ESE,112,2.4,2.4,37,0.00,CLR,,0.12,WeatherDisplay:10.37,2013-12-05 03:23:00,
2013-12-04 22:24:00,53.6,27.9,29.33,ESE,112,2.4,2.4,37,0.00,CLR,,0.12,WeatherDisplay:10.37,2013-12-05 03:24:00,
2013-12-04 22:25:00,53.6,27.9,29.33,SW,225,2.4,2.4,37,0.00,CLR,,0.12,WeatherDisplay:10.37,2013-12-05 03:25:00,
2013-12-04 22:26:00,54.0,28.3,29.33,SW,225,2.4,2.6,37,0.00,CLR,,0.12,WeatherDisplay:10.37,2013-12-05 03:26:00,
2013-12-04 22:29:00,54.1,29.1,29.31,ENE,67,2.6,2.6,38,0.00,CLR,,0.12,WeatherDisplay:10.37,2013-12-05 03:29:00,
2013-12-04 22:30:00,54.1,29.1,29.31,ENE,67,2.6,2.6,38,0.00,CLR,,0.12,WeatherDisplay:10.37,2013-12-05 03:30:00,
2013-12-04 22:31:00,54.3,29.2,29.31,SSE,157,2.6,3.1,38,0.00,CLR,,0.12,WeatherDisplay:10.37,2013-12-05 03:31:00,
2013-12-04 22:32:00,54.3,29.2,29.31,SSE,157,2.6,3.1,38,0.00,CLR,,0.12,WeatherDisplay:10.37,2013-12-05 03:32:00,
2013-12-04 22:34:00,54.3,28.6,29.31,ESE,112,3.5,3.5,37,0.00,CLR,,0.12,WeatherDisplay:10.37,2013-12-05 03:34:00,
2013-12-04 22:35:00,54.5,28.7,29.31,NW,315,3.5,3.5,37,0.00,CLR,,0.12,WeatherDisplay:10.37,2013-12-05 03:35:00,
2013-12-04 22:36:00,54.5,29.4,29.36,NW,315,3.6,3.6,38,0.00,CLR,,0.12,WeatherDisplay:10.37,2013-12-05 03:36:00,
2013-12-04 22:37:00,54.5,29.4,29.33,NW,315,3.6,3.6,38,0.00,CLR,,0.12,WeatherDisplay:10.37,2013-12-05 03:37:00,
2013-12-04 22:39:00,54.9,29.1,29.33,ESE,112,3.6,3.6,37,0.00,CLR,,0.12,WeatherDisplay:10.37,2013-12-05 03:39:00,
2013-12-04 22:40:00,54.9,29.7,29.31,ESE,112,3.6,3.6,38,0.00,CLR,,0.12,WeatherDisplay:10.37,2013-12-05 03:40:00,
2013-12-04 22:41:00,55.0,29.9,29.31,West,270,3.6,3.6,38,0.00,CLR,,0.12,WeatherDisplay:10.37,2013-12-05 03:41:00,
2013-12-04 22:42:00,55.0,29.9,29.31,West,270,3.6,3.6,38,0.00,CLR,,0.12,WeatherDisplay:10.37,2013-12-05 03:42:00,
2013-12-04 22:44:00,55.2,30.7,29.36,West,270,3.6,3.6,39,0.00,CLR,,0.12,WeatherDisplay:10.37,2013-12-05 03:44:00,
2013-12-04 22:45:00,55.2,30.7,29.36,ESE,112,3.6,3.6,39,0.00,CLR,,0.12,WeatherDisplay:10.37,2013-12-05 03:45:00,
2013-12-04 22:47:00,55.2,30.7,29.31,North,0,3.6,3.6,39,0.00,CLR,,0.12,WeatherDisplay:10.37,2013-12-05 03:47:00,
2013-12-04 22:48:00,55.4,30.8,29.31,North,0,3.6,3.6,39,0.00,CLR,,0.12,WeatherDisplay:10.37,2013-12-05 03:48:00,
2013-12-04 22:51:00,55.4,30.8,29.33,SW,225,3.6,3.6,39,0.00,CLR,,0.12,WeatherDisplay:10.37,2013-12-05 03:51:00,
2013-12-04 22:52:00,55.4,30.8,29.33,SSW,202,3.6,3.6,39,0.00,CLR,,0.12,WeatherDisplay:10.37,2013-12-05 03:52:00,
2013-12-04 22:53:00,55.4,30.8,29.33,SSW,202,3.6,3.6,39,0.00,CLR,,0.12,WeatherDisplay:10.37,2013-12-05 03:53:00,
2013-12-04 22:54:00,55.4,30.2,29.28,SSW,202,3.6,3.6,38,0.00,CLR,,0.12,WeatherDisplay:10.37,2013-12-05 03:54:00,
2013-12-04 22:57:00,55.6,31.0,29.34,WSW,247,3.6,3.6,39,0.00,CLR,,0.12,WeatherDisplay:10.37,2013-12-05 03:57:00,
2013-12-04 22:59:00,55.6,31.0,29.28,NNW,337,3.6,3.6,39,0.00,CLR,,0.12,WeatherDisplay:10.37,2013-12-05 03:59:00,
2013-12-04 23:00:00,55.6,31.6,29.39,WSW,247,3.6,3.6,40,0.00,CLR,,0.12,WeatherDisplay:10.37,2013-12-05 04:00:00,
2013-12-04 23:03:00,55.6,31.6,29.28,WSW,247,3.6,3.6,40,0.00,CLR,,0.12,WeatherDisplay:10.37,2013-12-05 04:03:00,
2013-12-04 23:04:00,55.6,31.6,29.28,WSW,247,3.6,3.6,40,0.00,CLR,,0.12,WeatherDisplay:10.37,2013-12-05 04:04:00,
2013-12-04 23:05:00,55.6,31.6,29.28,WSW,247,3.6,3.6,40,0.00,CLR,,0.12,WeatherDisplay:10.37,2013-12-05 04:05:00,
2013-12-04 23:06:00,55.6,31.0,29.28,SSW,202,3.6,3.6,39,0.00,CLR,,0.12,WeatherDisplay:10.37,2013-12-05 04:06:00,
2013-12-04 23:08:00,55.8,31.2,29.28,SSW,202,3.6,3.6,39,0.00,CLR,,0.12,WeatherDisplay:10.37,2013-12-05 04:08:00,
2013-12-04 23:10:00,55.9,31.3,29.36,East,90,3.6,3.6,39,0.00,CLR,,0.12,WeatherDisplay:10.37,2013-12-05 04:10:00,
2013-12-04 23:11:00,55.9,31.3,29.36,East,90,3.6,3.6,39,0.00,CLR,,0.12,WeatherDisplay:10.37,2013-12-05 04:11:00,
2013-12-04 23:12:00,55.9,31.3,29.36,SSE,157,3.6,3.6,39,0.00,CLR,,0.12,WeatherDisplay:10.37,2013-12-05 04:12:00,
2013-12-04 23:13:00,55.9,30.7,29.28,SSE,157,3.6,3.6,38,0.00,CLR,,0.12,WeatherDisplay:10.37,2013-12-05 04:13:00,
2013-12-04 23:14:00,55.9,30.7,29.28,SSE,157,3.6,3.6,38,0.00,CLR,,0.12,WeatherDisplay:10.37,2013-12-05 04:14:00,
2013-12-04 23:16:00,55.9,30.7,29.28,South,180,3.6,3.6,38,0.00,CLR,,0.12,WeatherDisplay:10.37,2013-12-05 04:16:00,
2013-12-04 23:19:00,55.9,30.7,29.31,North,0,3.6,3.6,38,0.00,CLR,,0.12,WeatherDisplay:10.37,2013-12-05 04:19:00,
2013-12-04 23:20:00,55.9,30.7,29.31,South,180,3.6,3.6,38,0.00,CLR,,0.12,WeatherDisplay:10.37,2013-12-05 04:20:00,
2013-12-04 23:21:00,55.9,30.7,29.31,South,180,3.6,3.6,38,0.00,CLR,,0.12,WeatherDisplay:10.37,2013-12-05 04:21:00,
2013-12-04 23:22:00,55.9,30.0,29.33,WSW,247,3.6,3.6,37,0.00,CLR,,0.12,WeatherDisplay:10.37,2013-12-05 04:22:00,
2013-12-04 23:25:00,55.9,30.0,29.30,WSW,247,1.2,0.0,37,0.00,CLR,,0.12,WeatherDisplay:10.37,2013-12-05 04:25:00,
2013-12-04 23:26:00,55.9,30.0,29.30,West,270,1.2,0.0,37,0.00,CLR,,0.12,WeatherDisplay:10.37,2013-12-05 04:26:00,
2013-12-04 23:27:00,55.9,30.0,29.30,West,270,1.2,1.2,37,0.00,CLR,,0.12,WeatherDisplay:10.37,2013-12-05 04:27:00,
2013-12-04 23:29:00,55.9,30.0,29.33,WSW,247,1.3,1.3,37,0.00,CLR,,0.12,WeatherDisplay:10.37,2013-12-05 04:29:00,
2013-12-04 23:30:00,55.9,30.7,29.36,SW,225,4.6,4.6,38,0.00,CLR,,0.12,WeatherDisplay:10.37,2013-12-05 04:30:00,
2013-12-04 23:31:00,55.9,30.7,29.35,SW,225,4.6,4.6,38,0.00,CLR,,0.12,WeatherDisplay:10.37,2013-12-05 04:31:00,
2013-12-04 23:32:00,55.9,30.7,29.35,SSW,202,4.6,4.6,38,0.00,CLR,,0.12,WeatherDisplay:10.37,2013-12-05 04:32:00,
2013-12-04 23:34:00,56.1,30.8,29.31,South,180,4.6,4.6,38,0.00,CLR,,0.12,WeatherDisplay:10.37,2013-12-05 04:34:00,
2013-12-04 23:35:00,56.1,30.8,29.28,South,180,4.6,4.6,38,0.00,CLR,,0.12,WeatherDisplay:10.37,2013-12-05 04:35:00,
2013-12-04 23:36:00,56.1,30.8,29.28,South,180,4.6,4.6,38,0.00,CLR,,0.12,WeatherDisplay:10.37,2013-12-05 04:36:00,
2013-12-04 23:39:00,56.3,31.0,29.31,SW,225,4.6,4.6,38,0.00,CLR,,0.12,WeatherDisplay:10.37,2013-12-05 04:39:00,
2013-12-04 23:40:00,56.3,31.0,29.31,SW,225,4.6,4.6,38,0.00,CLR,,0.12,WeatherDisplay:10.37,2013-12-05 04:40:00,
2013-12-04 23:41:00,56.3,31.0,29.30,SW,225,4.6,4.6,38,0.00,CLR,,0.12,WeatherDisplay:10.37,2013-12-05 04:41:00,
2013-12-04 23:42:00,56.3,31.0,29.30,WNW,292,4.6,4.6,38,0.00,CLR,,0.12,WeatherDisplay:10.37,2013-12-05 04:42:00,
2013-12-04 23:44:00,56.3,31.0,29.37,NW,315,4.6,4.6,38,0.00,CLR,,0.12,WeatherDisplay:10.37,2013-12-05 04:44:00,
2013-12-04 23:45:00,56.3,31.0,29.31,South,180,4.6,4.6,38,0.00,CLR,,0.12,WeatherDisplay:10.37,2013-12-05 04:45:00,
2013-12-04 23:46:00,56.3,31.0,29.30,South,180,4.6,4.6,38,0.00,CLR,,0.12,WeatherDisplay:10.37,2013-12-05 04:46:00,
2013-12-04 23:47:00,56.3,31.0,29.30,South,180,4.6,4.6,38,0.00,CLR,,0.12,WeatherDisplay:10.37,2013-12-05 04:47:00,
2013-12-04 23:50:00,56.3,31.6,29.33,ENE,67,4.6,4.6,39,0.00,CLR,,0.12,WeatherDisplay:10.37,2013-12-05 04:50:00,
2013-12-04 23:52:00,56.5,31.8,29.33,East,90,4.6,4.6,39,0.00,CLR,,0.12,WeatherDisplay:10.37,2013-12-05 04:52:00,
2013-12-04 23:53:00,56.5,31.8,29.33,SE,135,4.6,4.6,39,0.00,CLR,,0.12,WeatherDisplay:10.37,2013-12-05 04:53:00,
2013-12-04 23:54:00,56.5,31.8,29.37,SE,135,4.6,4.6,39,0.00,CLR,,0.12,WeatherDisplay:10.37,2013-12-05 04:54:00,
2013-12-04 23:55:00,56.5,31.8,29.36,SSW,202,4.6,4.6,39,0.00,CLR,,0.12,WeatherDisplay:10.37,2013-12-05 04:55:00,
2013-12-04 23:58:00,56.7,31.3,29.31,SE,135,4.6,4.6,38,0.00,CLR,,0.12,WeatherDisplay:10.37,2013-12-05 04:58:00,
2013-12-04 23:59:00,56.7,31.3,29.31,SSW,202,4.6,4.6,38,0.00,CLR,,0.12,WeatherDisplay:10.37,2013-12-05 04:59:00,